M I D A S
Marine Information and Data Acquisition System
Tripno 1017 of the Zeeleeuw from 2005-10-12 06:25:38 to 2005-10-12 13:09:30
Back to CruiseResearch ActivitiesStationsMapUnderway DataData graphs

EquipmentUnitsComment
TimeDGPSUTC
LatitudeDGPSDM.mWGS84
LongitudeDGPSDM.mWGS84
TemperatureSBE03/SBE38deg celciusITS90
ConductivitySBE21S/mITS90
SalinitySBE21 Practical Salinity Units
ChlorophylAChelsea fluorimeterg/lCalibrated in Aceton
Missing or incorrect values are displayed as -999
Sea surface data collected by the RV Zeeleeuw from 2005-10-12 06:26:49 to 2005-10-12 13:18:30
                                                                                    Next 1000 lines
Time Latitude Longitude Temperature Conductivity Salinity ChlorophylA
2005-10-12 06:27:00 51°13.601 2°56.097 -999 0.011476 0.065424 -0.983506
2005-10-12 06:27:04 51°13.601 2°56.096 -999 0.011476 0.065424 -1.017215
2005-10-12 06:27:09 51°13.602 2°56.093 -999 0.011476 0.065424 -1.017215
2005-10-12 06:27:14 51°13.602 2°56.09 -999 0.011476 0.065424 -1.017215
2005-10-12 06:27:20 51°13.603 2°56.085 -999 0.011476 0.065424 -1.017215
2005-10-12 06:27:24 51°13.604 2°56.081 -999 0.011476 0.065424 -1.017215
2005-10-12 06:27:30 51°13.605 2°56.075 -999 0.011476 0.065423 -1.017215
2005-10-12 06:27:35 51°13.607 2°56.069 -999 0.011476 0.065424 -0.983506
2005-10-12 06:27:40 51°13.608 2°56.063 -999 0.011476 0.065424 -0.983506
2005-10-12 06:27:45 51°13.609 2°56.056 -999 0.011476 0.065423 -0.983506
2005-10-12 06:27:50 51°13.611 2°56.05 -999 0.011476 0.065423 -1.017215
2005-10-12 06:27:55 51°13.613 2°56.043 -999 0.011476 0.065423 -1.017215
2005-10-12 06:28:00 51°13.614 2°56.035 -999 0.011476 0.065423 -1.017215
2005-10-12 06:28:05 51°13.616 2°56.028 -999 0.011476 0.065422 -1.017215
2005-10-12 06:28:10 51°13.618 2°56.02 -999 0.011476 0.065422 -1.017215
2005-10-12 06:28:15 51°13.62 2°56.013 -999 0.011476 0.065422 -1.017215
2005-10-12 06:28:20 51°13.622 2°56.005 -999 0.011476 0.065422 -1.017215
2005-10-12 06:28:25 51°13.624 2°55.997 -999 0.011476 0.065422 -0.983506
2005-10-12 06:28:30 51°13.626 2°55.989 -999 0.011476 0.065422 -1.017215
2005-10-12 06:28:34 51°13.628 2°55.982 -999 0.011476 0.065422 -1.017215
2005-10-12 06:28:40 51°13.631 2°55.972 -999 0.011476 0.065422 -1.017215
2005-10-12 06:28:45 51°13.633 2°55.964 -999 0.011476 0.065421 -1.017215
2005-10-12 06:28:50 51°13.636 2°55.955 -999 0.011476 0.065421 -0.983506
2005-10-12 06:28:55 51°13.639 2°55.946 -999 0.011476 0.065422 -1.017215
2005-10-12 06:29:00 51°13.642 2°55.937 -999 0.011476 0.065421 -1.017215
2005-10-12 06:29:05 51°13.644 2°55.928 -999 0.011476 0.065421 -1.017215
2005-10-12 06:29:10 51°13.647 2°55.919 -999 0.011476 0.065421 -1.017215
2005-10-12 06:29:14 51°13.65 2°55.912 -999 0.011476 0.06542 -0.983506
2005-10-12 06:29:20 51°13.653 2°55.902 -999 0.011476 0.06542 -1.017215
2005-10-12 06:29:25 51°13.656 2°55.893 -999 0.011476 0.06542 -1.017215
2005-10-12 06:29:30 51°13.659 2°55.884 -999 0.011476 0.06542 -1.017215
2005-10-12 06:29:34 51°13.662 2°55.877 -999 0.011476 0.06542 -1.017215
2005-10-12 06:29:40 51°13.665 2°55.866 -999 0.011476 0.06542 -1.017215
2005-10-12 06:29:45 51°13.668 2°55.857 -999 0.011476 0.06542 -1.017215
2005-10-12 06:29:50 51°13.67 2°55.848 -999 0.011476 0.065419 -0.983506
2005-10-12 06:29:55 51°13.673 2°55.839 -999 0.011476 0.065419 -1.017215
2005-10-12 06:30:00 51°13.675 2°55.829 -999 0.011476 0.065419 -1.017215
2005-10-12 06:30:05 51°13.677 2°55.821 -999 0.011476 0.065419 -0.983506
2005-10-12 06:30:10 51°13.679 2°55.812 -999 0.011476 0.065419 -0.983506
2005-10-12 06:30:15 51°13.68 2°55.803 -999 0.011476 0.065418 -0.983506
2005-10-12 06:30:20 51°13.682 2°55.796 -999 0.011476 0.065418 -1.017215
2005-10-12 06:30:25 51°13.683 2°55.788 -999 0.011476 0.065417 -1.017215
2005-10-12 06:30:30 51°13.684 2°55.78 -999 0.011476 0.065418 -1.017215
2005-10-12 06:30:34 51°13.685 2°55.775 -999 0.011476 0.065417 -1.017215
2005-10-12 06:30:39 51°13.686 2°55.769 -999 0.011476 0.065417 -1.017215
2005-10-12 06:30:44 51°13.687 2°55.763 -999 0.011476 0.065417 -1.017215
2005-10-12 06:30:49 51°13.687 2°55.758 -999 0.011476 0.065417 -1.017215
2005-10-12 06:30:54 51°13.688 2°55.754 -999 0.011476 0.065416 -1.017215
2005-10-12 06:30:59 51°13.688 2°55.75 -999 0.011476 0.065416 -0.983506
2005-10-12 06:31:04 51°13.689 2°55.747 -999 0.011476 0.065416 -0.983506
2005-10-12 06:31:09 51°13.689 2°55.745 -999 0.011476 0.065416 -0.983506
2005-10-12 06:31:14 51°13.689 2°55.743 -999 0.011476 0.065415 -1.017215
2005-10-12 06:31:20 51°13.689 2°55.741 -999 0.011476 0.065415 -1.017215
2005-10-12 06:31:24 51°13.69 2°55.74 -999 0.011476 0.065415 -1.017215
2005-10-12 06:31:29 51°13.69 2°55.74 -999 0.011476 0.065414 -1.017215
2005-10-12 06:31:34 51°13.691 2°55.741 -999 0.011476 0.065414 -1.017215
2005-10-12 06:31:40 51°13.692 2°55.742 -999 0.011476 0.065414 -1.017215
2005-10-12 06:31:44 51°13.694 2°55.742 -999 0.011476 0.065414 -1.017215
2005-10-12 06:31:49 51°13.695 2°55.743 -999 0.011476 0.065413 -1.017215
2005-10-12 06:31:54 51°13.697 2°55.744 -999 0.011476 0.065413 -1.017215
2005-10-12 06:31:59 51°13.699 2°55.746 -999 0.011476 0.065413 -1.017215
2005-10-12 06:32:04 51°13.702 2°55.747 -999 0.011476 0.065413 -1.017215
2005-10-12 06:32:09 51°13.705 2°55.747 -999 0.011476 0.065413 -1.017215
2005-10-12 06:32:14 51°13.708 2°55.748 -999 0.011476 0.065413 -1.017215
2005-10-12 06:32:19 51°13.712 2°55.748 -999 0.011476 0.065413 -1.017215
2005-10-12 06:32:24 51°13.716 2°55.748 -999 0.011476 0.065413 -1.017215
2005-10-12 06:32:30 51°13.721 2°55.746 -999 0.011476 0.065413 -1.017215
2005-10-12 06:32:34 51°13.725 2°55.744 -999 0.011476 0.065413 -1.017215
2005-10-12 06:32:39 51°13.73 2°55.741 -999 0.011476 0.065413 -1.017215
2005-10-12 06:32:44 51°13.735 2°55.735 -999 0.011476 0.065413 -0.983506
2005-10-12 06:32:49 51°13.741 2°55.729 -999 0.011476 0.065412 -1.017215
2005-10-12 06:32:54 51°13.747 2°55.721 -999 0.011476 0.065411 -1.017215
2005-10-12 06:32:59 51°13.754 2°55.713 -999 0.011476 0.065411 -1.017215
2005-10-12 06:33:04 51°13.761 2°55.704 -999 0.011476 0.06541 -1.017215
2005-10-12 06:33:09 51°13.77 2°55.695 -999 0.011476 0.06541 -1.017215
2005-10-12 06:33:14 51°13.778 2°55.685 -999 0.011476 0.06541 -0.983506
2005-10-12 06:33:20 51°13.789 2°55.674 -999 0.011476 0.065409 -1.017215
2005-10-12 06:33:24 51°13.797 2°55.667 -999 0.011476 0.065409 -0.983506
2005-10-12 06:33:29 51°13.807 2°55.657 -999 0.011476 0.065408 -1.017215
2005-10-12 06:33:34 51°13.817 2°55.648 -999 0.011476 0.065408 -1.017215
2005-10-12 06:33:40 51°13.83 2°55.638 -999 0.011476 0.065408 -1.017215
2005-10-12 06:33:44 51°13.839 2°55.631 -999 0.011476 0.065409 -1.017215
2005-10-12 06:33:49 51°13.851 2°55.622 -999 0.011476 0.065409 -1.017215
2005-10-12 06:33:54 51°13.852 2°55.62 -999 0.011476 0.065408 -1.017215
2005-10-12 06:34:00 51°13.876 2°55.602 -999 0.011476 0.065408 -1.017215
2005-10-12 06:34:04 51°13.886 2°55.595 -999 0.011476 0.065408 -1.017215
2005-10-12 06:34:09 51°13.899 2°55.587 -999 0.011476 0.065408 -1.017215
2005-10-12 06:34:14 51°13.911 2°55.577 -999 0.011476 0.065408 -1.017215
2005-10-12 06:34:20 51°13.926 2°55.565 -999 0.011476 0.065407 -1.017215
2005-10-12 06:34:24 51°13.937 2°55.558 -999 0.011476 0.065407 -1.017215
2005-10-12 06:34:29 51°13.949 2°55.548 -999 0.011476 0.065407 -1.017215
2005-10-12 06:34:34 51°13.962 2°55.538 -999 0.011476 0.065407 -0.983506
2005-10-12 06:34:39 51°13.976 2°55.529 -999 0.011476 0.065407 -0.983506
2005-10-12 06:34:44 51°13.989 2°55.519 -999 0.011476 0.065407 -1.017215
2005-10-12 06:34:49 51°14.002 2°55.509 -999 0.011476 0.065406 -1.017215
2005-10-12 06:34:54 51°14.016 2°55.5 -999 0.011476 0.065407 -1.017215
2005-10-12 06:34:59 51°14.03 2°55.49 -999 0.011476 0.065406 -1.017215
2005-10-12 06:35:04 51°14.043 2°55.481 -999 0.011476 0.065406 -1.017215
2005-10-12 06:35:10 51°14.059 2°55.47 -999 0.011476 0.065406 -1.017215
2005-10-12 06:35:14 51°14.07 2°55.462 -999 0.011476 0.065407 -1.017215
2005-10-12 06:35:19 51°14.084 2°55.453 -999 0.011476 0.065406 -1.017215
2005-10-12 06:35:24 51°14.098 2°55.443 -999 0.011476 0.065406 -1.017215
2005-10-12 06:35:29 51°14.112 2°55.433 -999 0.011476 0.065406 -1.017215
2005-10-12 06:35:34 51°14.126 2°55.422 -999 0.011476 0.065406 -1.017215
2005-10-12 06:35:39 51°14.139 2°55.41 -999 0.011476 0.065406 -1.017215
2005-10-12 06:35:44 51°14.153 2°55.399 -999 0.011476 0.065406 -1.017215
2005-10-12 06:35:49 51°14.166 2°55.386 -999 0.011476 0.065406 -1.017215
2005-10-12 06:35:54 51°14.179 2°55.373 -999 0.011476 0.065406 -1.017215
2005-10-12 06:36:00 51°14.194 2°55.356 -999 0.011476 0.065405 -1.017215
2005-10-12 06:36:04 51°14.205 2°55.344 -999 0.011476 0.065405 -0.983506
2005-10-12 06:36:09 51°14.217 2°55.328 -999 0.011476 0.065405 -0.983506
2005-10-12 06:36:14 51°14.229 2°55.312 -999 0.011476 0.065405 -1.017215
2005-10-12 06:36:19 51°14.241 2°55.295 -999 0.011476 0.065405 -1.017215
2005-10-12 06:36:24 51°14.253 2°55.277 -999 0.011476 0.065405 -1.017215
2005-10-12 06:36:29 51°14.264 2°55.259 -999 0.011476 0.065405 -1.017215
2005-10-12 06:36:34 51°14.275 2°55.24 -999 0.011476 0.065405 -1.017215
2005-10-12 06:36:39 51°14.286 2°55.221 -999 0.011476 0.065405 -1.017215
2005-10-12 06:36:44 51°14.297 2°55.201 -999 0.011476 0.065404 -1.017215
2005-10-12 06:36:49 51°14.308 2°55.181 -999 0.011476 0.065404 -1.017215
2005-10-12 06:36:54 51°14.319 2°55.16 -999 0.011476 0.065404 -1.017215
2005-10-12 06:36:59 51°14.33 2°55.139 -999 0.011476 0.065403 -1.017215
2005-10-12 06:37:04 51°14.341 2°55.119 -999 0.011476 0.065403 -1.017215
2005-10-12 06:37:09 51°14.352 2°55.098 -999 0.011476 0.065403 -1.017215
2005-10-12 06:37:14 51°14.364 2°55.078 -999 0.011476 0.065402 -1.017215
2005-10-12 06:37:19 51°14.377 2°55.059 -999 0.011476 0.065401 -1.017215
2005-10-12 06:37:24 51°14.391 2°55.043 -999 0.011476 0.065401 -1.017215
2005-10-12 06:37:30 51°14.41 2°55.028 -999 0.011476 0.065402 -0.983506
2005-10-12 06:37:34 51°14.424 2°55.018 -999 0.011476 0.065401 -1.017215
2005-10-12 06:37:39 51°14.44 2°55.006 -999 0.011476 0.065401 -1.017215
2005-10-12 06:37:44 51°14.457 2°54.995 -999 0.011476 0.065401 -1.017215
2005-10-12 06:37:49 51°14.473 2°54.983 -999 0.011476 0.065401 -1.017215
2005-10-12 06:37:54 51°14.49 2°54.971 -999 0.011476 0.065401 -1.017215
2005-10-12 06:38:00 51°14.509 2°54.956 -999 0.011476 0.065402 -1.017215
2005-10-12 06:38:04 51°14.522 2°54.945 -999 0.011476 0.065402 -1.017215
2005-10-12 06:38:09 51°14.538 2°54.932 -999 0.011476 0.065402 -1.017215
2005-10-12 06:38:14 51°14.554 2°54.918 -999 0.011476 0.065403 -1.017215
2005-10-12 06:38:19 51°14.57 2°54.905 -999 0.011476 0.065403 -1.017215
2005-10-12 06:38:24 51°14.586 2°54.891 -999 0.011476 0.065403 -1.017215
2005-10-12 06:38:29 51°14.602 2°54.877 -999 0.011476 0.065403 -1.017215
2005-10-12 06:38:34 51°14.618 2°54.863 -999 0.011476 0.065404 -1.017215
2005-10-12 06:38:39 51°14.634 2°54.849 -999 0.011476 0.065404 -1.017215
2005-10-12 06:38:44 51°14.65 2°54.836 -999 0.011476 0.065404 -1.017215
2005-10-12 06:38:49 51°14.666 2°54.822 -999 0.011476 0.065404 -1.017215
2005-10-12 06:38:54 51°14.682 2°54.808 -999 0.011476 0.065404 -1.017215
2005-10-12 06:38:59 51°14.699 2°54.794 -999 0.011476 0.065404 -1.017215
2005-10-12 06:39:04 51°14.715 2°54.781 -999 0.011476 0.065443 -1.017215
2005-10-12 06:39:09 51°14.731 2°54.768 -999 0.011476 0.065443 -1.017215
2005-10-12 06:39:14 51°14.748 2°54.754 -999 0.011476 0.065484 -1.017215
2005-10-12 06:39:19 51°14.764 2°54.741 -999 3.403481 24.364892 -0.814958
2005-10-12 06:39:24 51°14.78 2°54.727 -999 3.714234 26.471094 -0.511574
2005-10-12 06:39:29 51°14.796 2°54.713 -999 3.818458 27.395357 -0.916087
2005-10-12 06:39:34 51°14.812 2°54.699 -999 3.852451 28.073342 -0.983506
2005-10-12 06:39:39 51°14.828 2°54.684 -999 3.852451 28.073342 -0.983506
2005-10-12 06:39:44 51°14.843 2°54.669 -999 3.90707 28.950536 -0.983506
2005-10-12 06:39:49 51°14.859 2°54.654 -999 3.999943 30.155095 -1.017215
2005-10-12 06:39:54 51°14.875 2°54.64 -999 4.03623 30.875072 -1.050924
2005-10-12 06:39:59 51°14.891 2°54.626 -999 4.036235 31.146746 -1.118343
2005-10-12 06:40:04 51°14.907 2°54.611 -999 4.039037 31.352477 -1.118343
2005-10-12 06:40:09 51°14.923 2°54.597 -999 4.039037 31.352477 -1.118343
2005-10-12 06:40:14 51°14.939 2°54.582 -999 4.027118 31.378376 -1.118343
2005-10-12 06:40:19 51°14.955 2°54.568 -999 4.037485 31.5268 -1.118343
2005-10-12 06:40:24 51°14.971 2°54.554 -999 4.033858 31.562815 -1.118343
2005-10-12 06:40:29 51°14.987 2°54.539 -999 4.030749 31.572487 -1.118343
2005-10-12 06:40:34 51°15.003 2°54.525 -999 4.013853 31.460434 -1.118343
2005-10-12 06:40:39 51°15.019 2°54.51 -999 4.013853 31.460434 -1.118343
2005-10-12 06:40:44 51°15.035 2°54.496 -999 4.02111 31.567834 -1.118343
2005-10-12 06:40:49 51°15.05 2°54.481 -999 4.016445 31.542565 -1.152053
2005-10-12 06:40:54 51°15.066 2°54.467 -999 4.022872 31.614415 -1.152053
2005-10-12 06:41:00 51°15.085 2°54.449 -999 4.023495 31.630918 -1.152053
2005-10-12 06:41:04 51°15.097 2°54.437 -999 4.022562 31.641614 -1.152053
2005-10-12 06:41:09 51°15.113 2°54.422 -999 4.022562 31.641614 -1.152053
2005-10-12 06:41:14 51°15.129 2°54.407 -999 4.022977 31.658932 -1.152053
2005-10-12 06:41:19 51°15.145 2°54.393 -999 4.016654 31.611934 -1.152053
2005-10-12 06:41:24 51°15.161 2°54.378 -999 4.022459 31.6733 -1.185762
2005-10-12 06:41:29 51°15.177 2°54.364 -999 4.02277 31.685823 -1.185762
2005-10-12 06:41:34 51°15.193 2°54.35 -999 4.019868 31.670786 -1.185762
2005-10-12 06:41:39 51°15.209 2°54.336 -999 4.019868 31.670786 -1.185762
2005-10-12 06:41:44 51°15.225 2°54.322 -999 4.016654 31.646483 -1.185762
2005-10-12 06:41:50 51°15.244 2°54.305 -999 4.019453 31.674982 -1.185762
2005-10-12 06:41:54 51°15.257 2°54.293 -999 4.026502 31.740836 -1.185762
2005-10-12 06:41:59 51°15.273 2°54.279 -999 4.015514 31.644301 -1.185762
2005-10-12 06:42:04 51°15.289 2°54.264 -999 4.021112 31.688244 -1.219471
2005-10-12 06:42:09 51°15.305 2°54.25 -999 4.021112 31.688244 -1.219471
2005-10-12 06:42:14 51°15.321 2°54.235 -999 4.026087 31.728029 -1.185762
2005-10-12 06:42:20 51°15.34 2°54.218 -999 4.02163 31.685608 -1.219471
2005-10-12 06:42:24 51°15.353 2°54.206 -999 4.03127 31.770946 -1.219471
2005-10-12 06:42:29 51°15.369 2°54.192 -999 4.015307 31.63204 -1.219471
2005-10-12 06:42:34 51°15.385 2°54.178 -999 4.035521 31.808946 -1.219471
2005-10-12 06:42:39 51°15.401 2°54.163 -999 4.035521 31.808946 -1.219471
2005-10-12 06:42:44 51°15.417 2°54.149 -999 4.034069 31.798161 -1.219471
2005-10-12 06:42:49 51°15.433 2°54.134 -999 4.024636 31.716589 -1.219471
2005-10-12 06:42:54 51°15.449 2°54.12 -999 4.015929 31.643373 -1.219471
2005-10-12 06:43:00 51°15.468 2°54.102 -999 4.023289 31.709329 -1.219471
2005-10-12 06:43:04 51°15.481 2°54.091 -999 4.031789 31.787299 -1.219471
2005-10-12 06:43:09 51°15.497 2°54.076 -999 4.031789 31.787299 -1.219471
2005-10-12 06:43:14 51°15.513 2°54.062 -999 4.03324 31.802023 -1.253181
2005-10-12 06:43:20 51°15.532 2°54.044 -999 4.026917 31.751686 -1.253181
2005-10-12 06:43:24 51°15.545 2°54.033 -999 4.02671 31.75314 -1.253181
2005-10-12 06:43:29 51°15.561 2°54.018 -999 4.03635 31.840531 -1.253181
2005-10-12 06:43:34 51°15.577 2°54.004 -999 4.014271 31.646432 -1.253181
2005-10-12 06:43:39 51°15.593 2°53.989 -999 4.014271 31.646432 -1.253181
2005-10-12 06:43:44 51°15.609 2°53.975 -999 4.041741 31.887944 -1.253181
2005-10-12 06:43:49 51°15.625 2°53.96 -999 4.039875 31.871531 -1.253181
2005-10-12 06:43:54 51°15.641 2°53.946 -999 4.04879 31.952601 -1.219471
2005-10-12 06:43:59 51°15.657 2°53.931 -999 4.046199 31.932433 -1.253181
2005-10-12 06:44:04 51°15.673 2°53.917 -999 4.044955 31.923464 -1.253181
2005-10-12 06:44:10 51°15.692 2°53.899 -999 4.044955 31.923464 -1.253181
2005-10-12 06:44:14 51°15.705 2°53.888 -999 4.051797 31.987643 -1.253181
2005-10-12 06:44:19 51°15.721 2°53.873 -999 4.049412 31.969295 -1.253181
2005-10-12 06:44:24 51°15.736 2°53.858 -999 4.049205 31.970111 -1.219471
2005-10-12 06:44:29 51°15.752 2°53.844 -999 4.053766 32.010933 -1.253181
2005-10-12 06:44:34 51°15.768 2°53.829 -999 4.050967 31.985626 -1.253181
2005-10-12 06:44:39 51°15.784 2°53.815 -999 4.050967 31.985626 -1.253181
2005-10-12 06:44:44 51°15.8 2°53.801 -999 4.053041 32.001238 -1.219471
2005-10-12 06:44:49 51°15.816 2°53.786 -999 4.054596 32.014929 -1.219471
2005-10-12 06:44:54 51°15.832 2°53.772 -999 4.05584 32.021915 -1.219471
2005-10-12 06:44:59 51°15.848 2°53.757 -999 4.053559 31.99655 -1.219471
2005-10-12 06:45:04 51°15.864 2°53.743 -999 4.057706 32.029746 -1.219471
2005-10-12 06:45:09 51°15.88 2°53.729 -999 4.057706 32.029746 -1.219471
2005-10-12 06:45:14 51°15.896 2°53.714 -999 4.062371 32.068167 -1.219471
2005-10-12 06:45:19 51°15.912 2°53.7 -999 4.062474 32.067094 -1.219471
2005-10-12 06:45:24 51°15.928 2°53.686 -999 4.064133 32.079047 -1.219471
2005-10-12 06:45:30 51°15.948 2°53.669 -999 4.063822 32.073 -1.219471
2005-10-12 06:45:34 51°15.96 2°53.657 -999 4.064133 32.071104 -1.219471
2005-10-12 06:45:40 51°15.98 2°53.64 -999 4.064133 32.071104 -1.219471
2005-10-12 06:45:44 51°15.993 2°53.629 -999 4.063096 32.057351 -1.219471
2005-10-12 06:45:50 51°16.012 2°53.611 -999 4.062785 32.050647 -1.219471
2005-10-12 06:45:54 51°16.025 2°53.6 -999 4.062059 32.040959 -1.219471
2005-10-12 06:45:59 51°16.041 2°53.585 -999 4.064858 32.063598 -1.219471
2005-10-12 06:46:04 51°16.056 2°53.571 -999 4.064547 32.05954 -1.219471
2005-10-12 06:46:09 51°16.073 2°53.557 -999 4.064547 32.05954 -1.219471
2005-10-12 06:46:14 51°16.089 2°53.542 -999 4.062578 32.040232 -1.219471
2005-10-12 06:46:19 51°16.105 2°53.528 -999 4.063925 32.050103 -1.219471
2005-10-12 06:46:24 51°16.121 2°53.513 -999 4.064133 32.049944 -1.219471
2005-10-12 06:46:29 51°16.137 2°53.499 -999 4.066724 32.072078 -1.219471
2005-10-12 06:46:34 51°16.153 2°53.485 -999 4.068072 32.083271 -1.219471
2005-10-12 06:46:39 51°16.169 2°53.47 -999 4.068072 32.083271 -1.219471
2005-10-12 06:46:44 51°16.185 2°53.456 -999 4.067761 32.07789 -1.219471
2005-10-12 06:46:49 51°16.201 2°53.442 -999 4.065584 32.058743 -1.219471
2005-10-12 06:46:54 51°16.217 2°53.428 -999 4.065895 32.060818 -1.219471
2005-10-12 06:47:00 51°16.236 2°53.411 -999 4.070353 32.0987 -1.185762
2005-10-12 06:47:04 51°16.249 2°53.4 -999 4.069834 32.092818 -1.219471
2005-10-12 06:47:09 51°16.265 2°53.386 -999 4.069834 32.092818 -1.219471
2005-10-12 06:47:14 51°16.281 2°53.372 -999 4.057912 31.987993 -1.219471
2005-10-12 06:47:19 51°16.297 2°53.357 -999 4.067657 32.073672 -1.219471
2005-10-12 06:47:24 51°16.313 2°53.343 -999 4.070249 32.095142 -1.219471
2005-10-12 06:47:29 51°16.329 2°53.329 -999 4.070767 32.101024 -1.219471
2005-10-12 06:47:34 51°16.345 2°53.315 -999 4.068798 32.084362 -1.219471
2005-10-12 06:47:40 51°16.364 2°53.298 -999 4.068798 32.084362 -1.219471
2005-10-12 06:47:44 51°16.376 2°53.286 -999 4.069731 32.093229 -1.219471
2005-10-12 06:47:49 51°16.392 2°53.272 -999 4.071493 32.110054 -1.185762
2005-10-12 06:47:54 51°16.408 2°53.258 -999 4.070042 32.098611 -1.219471
2005-10-12 06:47:59 51°16.424 2°53.244 -999 4.067243 32.075315 -1.219471
2005-10-12 06:48:04 51°16.44 2°53.23 -999 4.067139 32.078371 -1.219471
2005-10-12 06:48:09 51°16.456 2°53.215 -999 4.067139 32.078371 -1.219471
2005-10-12 06:48:14 51°16.471 2°53.201 -999 4.066206 32.074793 -1.185762
2005-10-12 06:48:19 51°16.488 2°53.187 -999 4.058638 32.012187 -1.185762
2005-10-12 06:48:24 51°16.503 2°53.173 -999 4.059675 32.024608 -1.185762
2005-10-12 06:48:30 51°16.523 2°53.156 -999 4.055321 31.989608 -1.185762
2005-10-12 06:48:34 51°16.535 2°53.145 -999 4.054388 31.98536 -1.185762
2005-10-12 06:48:39 51°16.551 2°53.131 -999 4.054388 31.98536 -1.185762
2005-10-12 06:48:44 51°16.567 2°53.116 -999 4.052522 31.971584 -1.185762
2005-10-12 06:48:50 51°16.586 2°53.099 -999 4.048997 31.942556 -1.185762
2005-10-12 06:48:54 51°16.599 2°53.088 -999 4.045369 31.910642 -1.185762
2005-10-12 06:49:00 51°16.618 2°53.071 -999 4.043296 31.892407 -1.185762
2005-10-12 06:49:04 51°16.631 2°53.06 -999 4.045576 31.913124 -1.185762
2005-10-12 06:49:09 51°16.646 2°53.045 -999 4.045576 31.913124 -1.185762
2005-10-12 06:49:14 51°16.662 2°53.031 -999 4.037698 31.845153 -1.185762
2005-10-12 06:49:20 51°16.681 2°53.013 -999 4.045473 31.91287 -1.185762
2005-10-12 06:49:24 51°16.694 2°53.002 -999 4.042881 31.890734 -1.185762
2005-10-12 06:49:29 51°16.71 2°52.988 -999 4.044125 31.904309 -1.185762
2005-10-12 06:49:34 51°16.726 2°52.973 -999 4.043296 31.898989 -1.185762
2005-10-12 06:49:39 51°16.742 2°52.959 -999 4.043296 31.898989 -1.185762
2005-10-12 06:49:44 51°16.758 2°52.945 -999 4.039564 31.866822 -1.185762
2005-10-12 06:49:49 51°16.773 2°52.931 -999 4.034381 31.820582 -1.185762
2005-10-12 06:49:54 51°16.789 2°52.917 -999 4.037698 31.850411 -1.185762
2005-10-12 06:49:59 51°16.805 2°52.903 -999 4.039668 31.868391 -1.185762
2005-10-12 06:50:04 51°16.821 2°52.888 -999 4.040808 31.878421 -1.185762
2005-10-12 06:50:10 51°16.84 2°52.871 -999 4.040808 31.878421 -1.185762
2005-10-12 06:50:14 51°16.852 2°52.859 -999 4.039253 31.86606 -1.152053
2005-10-12 06:50:19 51°16.868 2°52.844 -999 4.037802 31.85461 -1.152053
2005-10-12 06:50:24 51°16.884 2°52.83 -999 4.036039 31.841082 -1.185762
2005-10-12 06:50:29 51°16.899 2°52.815 -999 4.027643 31.768553 -1.152053
2005-10-12 06:50:34 51°16.916 2°52.801 -999 4.016344 31.669879 -1.185762
2005-10-12 06:50:39 51°16.931 2°52.786 -999 4.016344 31.669879 -1.185762
2005-10-12 06:50:44 51°16.947 2°52.772 -999 4.031686 31.807387 -1.185762
2005-10-12 06:50:49 51°16.963 2°52.757 -999 4.034899 31.836968 -1.152053
2005-10-12 06:50:54 51°16.979 2°52.742 -999 4.033966 31.830075 -1.152053
2005-10-12 06:50:59 51°16.995 2°52.727 -999 4.024948 31.751411 -1.152053
2005-10-12 06:51:04 51°17.011 2°52.713 -999 4.027954 31.778504 -1.152053
2005-10-12 06:51:10 51°17.031 2°52.695 -999 4.027954 31.778504 -1.152053
2005-10-12 06:51:14 51°17.043 2°52.684 -999 4.033137 31.824752 -1.152053
2005-10-12 06:51:19 51°17.06 2°52.669 -999 4.031893 31.813809 -1.152053
2005-10-12 06:51:24 51°17.076 2°52.655 -999 4.030234 31.800533 -1.152053
2005-10-12 06:51:29 51°17.091 2°52.64 -999 4.029405 31.795208 -1.152053
2005-10-12 06:51:34 51°17.108 2°52.626 -999 4.02785 31.783499 -1.152053
2005-10-12 06:51:40 51°17.127 2°52.608 -999 4.02785 31.783499 -1.152053
2005-10-12 06:51:44 51°17.14 2°52.597 -999 4.030546 31.808523 -1.152053
2005-10-12 06:51:49 51°17.156 2°52.582 -999 4.024844 31.760336 -1.152053
2005-10-12 06:51:54 51°17.172 2°52.568 -999 4.02785 31.786782 -1.118343
2005-10-12 06:51:59 51°17.188 2°52.553 -999 4.029405 31.800462 -1.152053
2005-10-12 06:52:04 51°17.204 2°52.539 -999 4.025362 31.765552 -1.152053
2005-10-12 06:52:09 51°17.22 2°52.524 -999 4.025362 31.765552 -1.152053
2005-10-12 06:52:14 51°17.236 2°52.509 -999 4.021527 31.73247 -1.118343
2005-10-12 06:52:19 51°17.252 2°52.494 -999 4.029302 31.800864 -1.118343
2005-10-12 06:52:24 51°17.268 2°52.48 -999 4.021631 31.732071 -1.118343
2005-10-12 06:52:29 51°17.284 2°52.465 -999 4.028887 31.796559 -1.152053
2005-10-12 06:52:34 51°17.3 2°52.45 -999 4.024015 31.753698 -1.118343
2005-10-12 06:52:39 51°17.316 2°52.436 -999 4.024015 31.753698 -1.118343
2005-10-12 06:52:44 51°17.332 2°52.421 -999 4.026295 31.774415 -1.152053
2005-10-12 06:52:49 51°17.348 2°52.406 -999 4.024948 31.76256 -1.118343
2005-10-12 06:52:54 51°17.364 2°52.391 -999 4.027228 31.781967 -1.118343
2005-10-12 06:52:59 51°17.38 2°52.376 -999 4.028472 31.792254 -1.118343
2005-10-12 06:53:04 51°17.396 2°52.361 -999 4.02785 31.785469 -1.118343
2005-10-12 06:53:09 51°17.412 2°52.346 -999 4.02785 31.785469 -1.118343
2005-10-12 06:53:14 51°17.428 2°52.332 -999 4.027436 31.780508 -1.118343
2005-10-12 06:53:19 51°17.444 2°52.317 -999 4.027436 31.779195 -1.118343
2005-10-12 06:53:24 51°17.46 2°52.302 -999 4.026814 31.772412 -1.118343
2005-10-12 06:53:30 51°17.48 2°52.285 -999 4.024948 31.754033 -1.118343
2005-10-12 06:53:34 51°17.493 2°52.273 -999 4.02671 31.769532 -1.118343
2005-10-12 06:53:40 51°17.512 2°52.256 -999 4.02671 31.769532 -1.118343
2005-10-12 06:53:44 51°17.525 2°52.244 -999 4.025881 31.762238 -1.118343
2005-10-12 06:53:49 51°17.541 2°52.229 -999 4.02474 31.75221 -1.118343
2005-10-12 06:53:54 51°17.557 2°52.214 -999 4.025051 31.754289 -1.118343
2005-10-12 06:54:00 51°17.576 2°52.196 -999 4.027954 31.779817 -1.118343
2005-10-12 06:54:04 51°17.589 2°52.185 -999 4.023807 31.742694 -1.118343
2005-10-12 06:54:09 51°17.605 2°52.169 -999 4.023807 31.742694 -1.118343
2005-10-12 06:54:14 51°17.62 2°52.155 -999 4.026503 31.765741 -1.118343
2005-10-12 06:54:19 51°17.637 2°52.14 -999 4.024533 31.747109 -1.118343
2005-10-12 06:54:24 51°17.652 2°52.125 -999 4.020594 31.711818 -1.118343
2005-10-12 06:54:29 51°17.668 2°52.11 -999 4.014893 31.661046 -1.118343
2005-10-12 06:54:34 51°17.684 2°52.095 -999 4.023704 31.737851 -1.118343
2005-10-12 06:54:39 51°17.7 2°52.08 -999 4.023704 31.737851 -1.118343
2005-10-12 06:54:44 51°17.716 2°52.065 -999 4.027643 31.772489 -1.118343
2005-10-12 06:54:49 51°17.732 2°52.05 -999 4.025051 31.7497 -1.118343
2005-10-12 06:54:54 51°17.748 2°52.035 -999 4.024844 31.746566 -1.118343
2005-10-12 06:54:59 51°17.764 2°52.02 -999 4.025362 31.749157 -1.118343
2005-10-12 06:55:04 51°17.78 2°52.005 -999 4.02899 31.781059 -1.118343
2005-10-12 06:55:09 51°17.796 2°51.99 -999 4.02899 31.781059 -1.118343
2005-10-12 06:55:14 51°17.812 2°51.975 -999 4.027643 31.768553 -1.118343
2005-10-12 06:55:19 51°17.828 2°51.96 -999 4.025155 31.746023 -1.084634
2005-10-12 06:55:24 51°17.844 2°51.945 -999 4.019661 31.697726 -1.084634
2005-10-12 06:55:29 51°17.86 2°51.93 -999 4.026502 31.75656 -1.118343
2005-10-12 06:55:34 51°17.876 2°51.915 -999 4.023911 31.732467 -1.118343
2005-10-12 06:55:40 51°17.895 2°51.897 -999 4.023911 31.732467 -1.118343
2005-10-12 06:55:44 51°17.908 2°51.885 -999 4.010435 31.614039 -1.118343
2005-10-12 06:55:49 51°17.924 2°51.87 -999 4.026917 31.758239 -1.118343
2005-10-12 06:55:54 51°17.94 2°51.855 -999 4.027539 31.763707 -1.084634
2005-10-12 06:56:00 51°17.958 2°51.837 -999 4.027228 31.760318 -1.118343
2005-10-12 06:56:04 51°17.971 2°51.825 -999 4.017691 31.675838 -1.118343
2005-10-12 06:56:09 51°17.987 2°51.81 -999 4.017691 31.675838 -1.118343
2005-10-12 06:56:14 51°18.003 2°51.795 -999 4.027228 31.760318 -1.084634
2005-10-12 06:56:19 51°18.019 2°51.78 -999 4.026917 31.757584 -1.118343
2005-10-12 06:56:24 51°18.035 2°51.766 -999 4.023289 31.725035 -1.118343
2005-10-12 06:56:29 51°18.051 2°51.751 -999 4.029094 31.776723 -1.118343
2005-10-12 06:56:34 51°18.067 2°51.736 -999 4.029509 31.779712 -1.084634
2005-10-12 06:56:40 51°18.087 2°51.718 -999 4.029509 31.779712 -1.084634
2005-10-12 06:56:44 51°18.099 2°51.707 -999 4.028576 31.770198 -1.118343
2005-10-12 06:56:49 51°18.116 2°51.692 -999 4.027021 31.755218 -1.084634
2005-10-12 06:56:54 51°18.132 2°51.677 -999 4.028368 31.765753 -1.118343
2005-10-12 06:56:59 51°18.148 2°51.662 -999 4.029094 31.770821 -1.118343
2005-10-12 06:57:04 51°18.164 2°51.647 -999 4.030234 31.779533 -1.118343
2005-10-12 06:57:09 51°18.18 2°51.632 -999 4.030234 31.779533 -1.118343
2005-10-12 06:57:14 51°18.195 2°51.617 -999 4.033033 31.802169 -1.118343
2005-10-12 06:57:19 51°18.212 2°51.603 -999 4.03407 31.80997 -1.118343
2005-10-12 06:57:24 51°18.227 2°51.588 -999 4.029197 31.765833 -1.118343
2005-10-12 06:57:30 51°18.246 2°51.569 -999 4.031271 31.782743 -1.118343
2005-10-12 06:57:34 51°18.259 2°51.557 -999 4.035521 31.818133 -1.118343
2005-10-12 06:57:39 51°18.275 2°51.542 -999 4.035521 31.818133 -1.118343
2005-10-12 06:57:44 51°18.291 2°51.527 -999 4.03749 31.833477 -1.118343
2005-10-12 06:57:49 51°18.307 2°51.512 -999 4.035417 31.813284 -1.118343
2005-10-12 06:57:54 51°18.323 2°51.497 -999 4.036765 31.822503 -1.118343
2005-10-12 06:58:00 51°18.342 2°51.479 -999 4.041844 31.863865 -1.118343
2005-10-12 06:58:04 51°18.355 2°51.467 -999 4.039563 31.84185 -1.118343
2005-10-12 06:58:10 51°18.374 2°51.449 -999 4.039563 31.84185 -1.118343
2005-10-12 06:58:14 51°18.387 2°51.437 -999 4.038423 31.829203 -1.152053
2005-10-12 06:58:19 51°18.403 2°51.422 -999 4.039771 31.839076 -1.118343
2005-10-12 06:58:24 51°18.419 2°51.407 -999 4.042051 31.857803 -1.118343
2005-10-12 06:58:29 51°18.435 2°51.392 -999 4.042881 31.863777 -1.118343
2005-10-12 06:58:34 51°18.451 2°51.378 -999 4.044436 31.876785 -1.118343
2005-10-12 06:58:39 51°18.467 2°51.362 -999 4.044436 31.876785 -1.118343
2005-10-12 06:58:44 51°18.483 2°51.347 -999 4.046716 31.89617 -1.118343
2005-10-12 06:58:49 51°18.499 2°51.332 -999 4.045887 31.887567 -1.118343
2005-10-12 06:58:54 51°18.515 2°51.318 -999 4.045576 31.884177 -1.118343
2005-10-12 06:59:00 51°18.534 2°51.3 -999 4.047649 31.901081 -1.118343
2005-10-12 06:59:04 51°18.547 2°51.288 -999 4.04682 31.892479 -1.118343
2005-10-12 06:59:10 51°18.566 2°51.27 -999 4.04682 31.892479 -1.118343
2005-10-12 06:59:14 51°18.579 2°51.258 -999 4.044332 31.869961 -1.118343
2005-10-12 06:59:20 51°18.598 2°51.24 -999 4.045887 31.882966 -1.118343
2005-10-12 06:59:24 51°18.61 2°51.228 -999 4.046923 31.891418 -1.118343
2005-10-12 06:59:30 51°18.63 2°51.21 -999 4.043813 31.863437 -1.152053
2005-10-12 06:59:34 51°18.642 2°51.198 -999 4.048478 31.905081 -1.152053
2005-10-12 06:59:40 51°18.662 2°51.18 -999 4.048478 31.905081 -1.152053
2005-10-12 06:59:44 51°18.675 2°51.168 -999 4.046716 31.888939 -1.118343
2005-10-12 06:59:50 51°18.694 2°51.15 -999 4.047753 31.89739 -1.152053
2005-10-12 06:59:54 51°18.707 2°51.138 -999 4.045576 31.878263 -1.118343
2005-10-12 06:59:59 51°18.723 2°51.123 -999 4.047856 31.898301 -1.152053
2005-10-12 07:00:04 51°18.739 2°51.109 -999 4.050552 31.921985 -1.118343
2005-10-12 07:00:10 51°18.759 2°51.091 -999 4.050552 31.921985 -1.118343
2005-10-12 07:00:14 51°18.772 2°51.079 -999 4.041429 31.841835 -1.118343
2005-10-12 07:00:19 51°18.788 2°51.064 -999 4.045472 31.877352 -1.152053
2005-10-12 07:00:24 51°18.804 2°51.05 -999 4.048478 31.903766 -1.152053
2005-10-12 07:00:29 51°18.82 2°51.035 -999 4.045368 31.875784 -1.152053
2005-10-12 07:00:34 51°18.837 2°51.02 -999 4.052107 31.934334 -1.118343
2005-10-12 07:00:39 51°18.853 2°51.006 -999 4.052107 31.934334 -1.118343
2005-10-12 07:00:44 51°18.869 2°50.991 -999 4.047856 31.897643 -1.152053
2005-10-12 07:00:49 51°18.886 2°50.977 -999 4.051692 31.932664 -1.152053
2005-10-12 07:00:54 51°18.902 2°50.962 -999 4.046509 31.887774 -1.152053
2005-10-12 07:01:00 51°18.921 2°50.944 -999 4.050344 31.921479 -1.152053
2005-10-12 07:01:04 51°18.934 2°50.932 -999 4.048789 31.908472 -1.152053
2005-10-12 07:01:09 51°18.95 2°50.917 -999 4.048789 31.908472 -1.152053
2005-10-12 07:01:14 51°18.967 2°50.903 -999 4.052522 31.942586 -1.152053
2005-10-12 07:01:20 51°18.986 2°50.885 -999 4.049204 31.913431 -1.152053
2005-10-12 07:01:24 51°18.999 2°50.873 -999 4.04796 31.903157 -1.152053
2005-10-12 07:01:29 51°19.016 2°50.858 -999 4.044747 31.875575 -1.152053
2005-10-12 07:01:34 51°19.032 2°50.844 -999 4.047753 31.901992 -1.152053
2005-10-12 07:01:39 51°19.048 2°50.829 -999 4.047753 31.901992 -1.152053
2005-10-12 07:01:44 51°19.065 2°50.814 -999 4.041118 31.844353 -1.152053
2005-10-12 07:01:50 51°19.085 2°50.797 -999 4.042466 31.856193 -1.152053
2005-10-12 07:01:54 51°19.098 2°50.785 -999 4.052107 31.941575 -1.152053
2005-10-12 07:01:59 51°19.114 2°50.77 -999 4.048893 31.913329 -1.152053
2005-10-12 07:02:05 51°19.134 2°50.753 -999 4.049412 31.918543 -1.152053
2005-10-12 07:02:10 51°19.15 2°50.738 -999 4.049412 31.918543 -1.152053
2005-10-12 07:02:14 51°19.163 2°50.727 -999 4.050863 31.932615 -1.152053
2005-10-12 07:02:19 51°19.18 2°50.712 -999 4.049204 31.918036 -1.152053
2005-10-12 07:02:24 51°19.196 2°50.698 -999 4.045369 31.886298 -1.152053
2005-10-12 07:02:30 51°19.216 2°50.68 -999 4.049826 31.926794 -1.152053
2005-10-12 07:02:34 51°19.229 2°50.668 -999 4.043917 31.87683 -1.152053
2005-10-12 07:02:39 51°19.245 2°50.654 -999 4.043917 31.87683 -1.152053
2005-10-12 07:02:44 51°19.261 2°50.639 -999 4.051174 31.941275 -1.152053
2005-10-12 07:02:49 51°19.277 2°50.624 -999 4.050759 31.938288 -1.152053
2005-10-12 07:02:54 51°19.293 2°50.61 -999 4.047753 31.911201 -1.152053
2005-10-12 07:02:59 51°19.31 2°50.595 -999 4.037179 31.817617 -1.152053
2005-10-12 07:03:04 51°19.326 2°50.58 -999 4.050967 31.937477 -1.152053
2005-10-12 07:03:09 51°19.342 2°50.565 -999 4.050967 31.937477 -1.152053
2005-10-12 07:03:14 51°19.358 2°50.55 -999 4.055528 31.977579 -1.152053
2005-10-12 07:03:20 51°19.378 2°50.533 -999 4.056357 31.983553 -1.152053
2005-10-12 07:03:24 51°19.39 2°50.521 -999 4.059364 32.008008 -1.152053
2005-10-12 07:03:29 51°19.406 2°50.506 -999 4.057705 31.990786 -1.152053
2005-10-12 07:03:34 51°19.422 2°50.491 -999 4.05926 32.000499 -1.152053
2005-10-12 07:03:40 51°19.442 2°50.474 -999 4.05926 32.000499 -1.152053
2005-10-12 07:03:44 51°19.455 2°50.462 -999 4.052729 31.9398 -1.152053
2005-10-12 07:03:50 51°19.474 2°50.445 -999 4.066724 32.060181 -1.152053
2005-10-12 07:03:54 51°19.486 2°50.433 -999 4.067139 32.057881 -1.152053
2005-10-12 07:03:59 51°19.503 2°50.418 -999 4.070663 32.082919 -1.152053
2005-10-12 07:04:04 51°19.518 2°50.403 -999 4.073151 32.097518 -1.152053
2005-10-12 07:04:10 51°19.537 2°50.386 -999 4.073151 32.097518 -1.152053
2005-10-12 07:04:14 51°19.55 2°50.374 -999 4.064132 32.011669 -1.152053
2005-10-12 07:04:19 51°19.566 2°50.359 -999 4.077091 32.116273 -1.152053
2005-10-12 07:04:24 51°19.581 2°50.344 -999 4.082793 32.15711 -1.152053
2005-10-12 07:04:30 51°19.601 2°50.327 -999 4.08725 32.185683 -1.152053
2005-10-12 07:04:34 51°19.613 2°50.315 -999 4.097722 32.265074 -1.152053
2005-10-12 07:04:39 51°19.629 2°50.3 -999 4.097722 32.265074 -1.152053
2005-10-12 07:04:44 51°19.645 2°50.286 -999 4.097099 32.251653 -1.152053
2005-10-12 07:04:50 51°19.664 2°50.268 -999 4.097929 32.249657 -1.152053
2005-10-12 07:04:54 51°19.677 2°50.256 -999 4.105704 32.30997 -1.152053
2005-10-12 07:05:00 51°19.696 2°50.239 -999 4.107052 32.313839 -1.152053
2005-10-12 07:05:04 51°19.709 2°50.227 -999 4.109333 32.32656 -1.152053
2005-10-12 07:05:09 51°19.725 2°50.213 -999 4.109333 32.32656 -1.152053
2005-10-12 07:05:14 51°19.741 2°50.198 -999 4.110888 32.3349 -1.185762
2005-10-12 07:05:20 51°19.76 2°50.18 -999 4.115968 32.37351 -1.152053
2005-10-12 07:05:24 51°19.773 2°50.168 -999 4.11856 32.390277 -1.185762
2005-10-12 07:05:29 51°19.788 2°50.153 -999 4.103112 32.249458 -1.152053
2005-10-12 07:05:34 51°19.804 2°50.139 -999 4.120116 32.393292 -1.152053
2005-10-12 07:05:39 51°19.82 2°50.124 -999 4.120116 32.393292 -1.152053
2005-10-12 07:05:44 51°19.836 2°50.109 -999 4.1225 32.409561 -1.152053
2005-10-12 07:05:49 51°19.852 2°50.094 -999 4.124574 32.422434 -1.152053
2005-10-12 07:05:54 51°19.868 2°50.079 -999 4.122085 32.397286 -1.152053
2005-10-12 07:05:59 51°19.884 2°50.065 -999 4.113791 32.32124 -1.152053
2005-10-12 07:06:05 51°19.904 2°50.047 -999 4.12561 32.422223 -1.152053
2005-10-12 07:06:09 51°19.917 2°50.036 -999 4.12561 32.422223 -1.152053
2005-10-12 07:06:14 51°19.933 2°50.021 -999 4.121878 32.3875 -1.185762
2005-10-12 07:06:19 51°19.949 2°50.006 -999 4.12561 32.417572 -1.185762
2005-10-12 07:06:24 51°19.965 2°49.991 -999 4.131209 32.463345 -1.152053
2005-10-12 07:06:29 51°19.981 2°49.976 -999 4.132039 32.466628 -1.185762
2005-10-12 07:06:34 51°19.997 2°49.962 -999 4.124988 32.40083 -1.152053
2005-10-12 07:06:40 51°20.017 2°49.944 -999 4.124988 32.40083 -1.152053
2005-10-12 07:06:44 51°20.03 2°49.932 -999 4.125714 32.404536 -1.152053
2005-10-12 07:06:50 51°20.049 2°49.915 -999 4.130172 32.443616 -1.185762
2005-10-12 07:06:54 51°20.062 2°49.903 -999 4.129343 32.436345 -1.185762
2005-10-12 07:07:00 51°20.082 2°49.885 -999 4.123847 32.387516 -1.152053
2005-10-12 07:07:04 51°20.094 2°49.873 -999 4.129654 32.438407 -1.152053
2005-10-12 07:07:10 51°20.114 2°49.856 -999 4.129654 32.438407 -1.152053
2005-10-12 07:07:14 51°20.127 2°49.845 -999 4.133905 32.47501 -1.152053
2005-10-12 07:07:19 51°20.143 2°49.83 -999 4.126336 32.408661 -1.152053
2005-10-12 07:07:24 51°20.159 2°49.815 -999 4.134527 32.479133 -1.152053
2005-10-12 07:07:29 51°20.176 2°49.801 -999 4.128202 32.422363 -1.185762
2005-10-12 07:07:34 51°20.192 2°49.787 -999 4.133905 32.471019 -1.152053
2005-10-12 07:07:39 51°20.209 2°49.773 -999 4.133905 32.471019 -1.152053
2005-10-12 07:07:45 51°20.229 2°49.757 -999 4.131209 32.444731 -1.152053
2005-10-12 07:07:49 51°20.242 2°49.747 -999 4.13629 32.487268 -1.185762
2005-10-12 07:07:54 51°20.259 2°49.733 -999 4.130172 32.430995 -1.152053
2005-10-12 07:08:00 51°20.279 2°49.718 -999 4.133801 32.460139 -1.152053
2005-10-12 07:08:04 51°20.293 2°49.708 -999 4.133075 32.45245 -1.185762
2005-10-12 07:08:09 51°20.31 2°49.695 -999 4.133075 32.45245 -1.185762
2005-10-12 07:08:14 51°20.327 2°49.682 -999 4.137948 32.493826 -1.152053
2005-10-12 07:08:20 51°20.347 2°49.666 -999 4.133801 32.457481 -1.152053
2005-10-12 07:08:24 51°20.36 2°49.655 -999 4.139089 32.503823 -1.152053
2005-10-12 07:08:29 51°20.377 2°49.642 -999 4.138052 32.4954 -1.152053
2005-10-12 07:08:34 51°20.393 2°49.628 -999 4.137326 32.489704 -1.185762
2005-10-12 07:08:39 51°20.41 2°49.615 -999 4.137326 32.489704 -1.185762
2005-10-12 07:08:44 51°20.427 2°49.602 -999 4.136393 32.481526 -1.185762
2005-10-12 07:08:50 51°20.447 2°49.586 -999 4.138052 32.496731 -1.185762
2005-10-12 07:08:54 51°20.461 2°49.576 -999 4.134216 32.463774 -1.185762
2005-10-12 07:08:59 51°20.477 2°49.563 -999 4.134008 32.462621 -1.152053
2005-10-12 07:09:05 51°20.498 2°49.548 -999 4.137741 32.496666 -1.185762
2005-10-12 07:09:10 51°20.514 2°49.534 -999 4.137741 32.496666 -1.185762
2005-10-12 07:09:14 51°20.527 2°49.523 -999 4.137326 32.493696 -1.152053
2005-10-12 07:09:20 51°20.547 2°49.508 -999 4.13629 32.484607 -1.152053
2005-10-12 07:09:24 51°20.561 2°49.497 -999 4.138778 32.505089 -1.185762
2005-10-12 07:09:30 51°20.581 2°49.481 -999 4.134527 32.465835 -1.185762
2005-10-12 07:09:34 51°20.595 2°49.47 -999 4.131001 32.432288 -1.185762
2005-10-12 07:09:39 51°20.611 2°49.457 -999 4.131001 32.432288 -1.185762
2005-10-12 07:09:44 51°20.628 2°49.444 -999 4.140852 32.515278 -1.185762
2005-10-12 07:09:49 51°20.645 2°49.431 -999 4.136393 32.474214 -1.185762
2005-10-12 07:09:54 51°20.662 2°49.418 -999 4.142822 32.52855 -1.185762
2005-10-12 07:10:00 51°20.682 2°49.402 -999 4.138467 32.489059 -1.185762
2005-10-12 07:10:04 51°20.696 2°49.392 -999 4.141785 32.517467 -1.185762
2005-10-12 07:10:09 51°20.713 2°49.379 -999 4.141785 32.517467 -1.185762
2005-10-12 07:10:14 51°20.73 2°49.365 -999 4.137326 32.478402 -1.185762
2005-10-12 07:10:20 51°20.75 2°49.349 -999 4.129135 32.407314 -1.185762
2005-10-12 07:10:24 51°20.763 2°49.338 -999 4.139607 32.499718 -1.185762
2005-10-12 07:10:29 51°20.78 2°49.325 -999 4.129446 32.411365 -1.185762
2005-10-12 07:10:34 51°20.796 2°49.312 -999 4.126854 32.389987 -1.185762
2005-10-12 07:10:39 51°20.813 2°49.299 -999 4.126854 32.389987 -1.185762
2005-10-12 07:10:44 51°20.83 2°49.286 -999 4.138674 32.494201 -1.185762
2005-10-12 07:10:49 51°20.847 2°49.272 -999 4.137845 32.487598 -1.185762
2005-10-12 07:10:54 51°20.864 2°49.259 -999 4.129342 32.413773 -1.185762
2005-10-12 07:10:59 51°20.881 2°49.246 -999 4.136704 32.478933 -1.185762
2005-10-12 07:11:05 51°20.901 2°49.23 -999 4.134112 32.455556 -1.185762
2005-10-12 07:11:10 51°20.918 2°49.217 -999 4.134112 32.455556 -1.185762
2005-10-12 07:11:14 51°20.931 2°49.206 -999 4.139193 32.498079 -1.185762
2005-10-12 07:11:19 51°20.949 2°49.193 -999 4.140644 32.506808 -1.185762
2005-10-12 07:11:24 51°20.965 2°49.181 -999 4.143755 32.529405 -1.185762
2005-10-12 07:11:30 51°20.985 2°49.164 -999 4.144169 32.527715 -1.185762
2005-10-12 07:11:34 51°20.999 2°49.154 -999 4.14251 32.509192 -1.185762
2005-10-12 07:11:39 51°21.016 2°49.141 -999 4.14251 32.509192 -1.185762
2005-10-12 07:11:44 51°21.033 2°49.128 -999 4.138881 32.474752 -1.185762
2005-10-12 07:11:50 51°21.053 2°49.112 -999 4.149976 32.568596 -1.185762
2005-10-12 07:11:54 51°21.067 2°49.101 -999 4.146036 32.532754 -1.185762
2005-10-12 07:11:59 51°21.084 2°49.088 -999 4.146554 32.535964 -1.185762
2005-10-12 07:12:04 51°21.101 2°49.075 -999 4.144169 32.514414 -1.185762
2005-10-12 07:12:09 51°21.118 2°49.063 -999 4.144169 32.514414 -1.185762
2005-10-12 07:12:14 51°21.135 2°49.051 -999 4.146865 32.537357 -1.185762
2005-10-12 07:12:19 51°21.153 2°49.04 -999 4.149768 32.562785 -1.185762
2005-10-12 07:12:25 51°21.174 2°49.027 -999 4.14137 32.4899 -1.185762
2005-10-12 07:12:29 51°21.188 2°49.018 -999 4.149976 32.564601 -1.185762
2005-10-12 07:12:34 51°21.206 2°49.007 -999 4.149043 32.556428 -1.185762
2005-10-12 07:12:40 51°21.227 2°48.994 -999 4.149043 32.556428 -1.185762
2005-10-12 07:12:44 51°21.241 2°48.986 -999 4.147902 32.547104 -1.185762
2005-10-12 07:12:49 51°21.259 2°48.975 -999 4.146243 32.533239 -1.185762
2005-10-12 07:12:54 51°21.277 2°48.965 -999 4.147487 32.545467 -1.185762
2005-10-12 07:13:00 51°21.299 2°48.952 -999 4.148732 32.558363 -1.185762
2005-10-12 07:13:04 51°21.313 2°48.944 -999 4.146139 32.537654 -1.185762
2005-10-12 07:13:10 51°21.334 2°48.93 -999 4.146139 32.537654 -1.185762
2005-10-12 07:13:14 51°21.348 2°48.922 -999 4.145621 32.535109 -1.185762
2005-10-12 07:13:19 51°21.367 2°48.913 -999 4.137533 32.466268 -1.185762
2005-10-12 07:13:24 51°21.385 2°48.905 -999 4.140022 32.490055 -1.185762
2005-10-12 07:13:30 51°21.408 2°48.895 -999 4.142303 32.514026 -1.185762
2005-10-12 07:13:34 51°21.423 2°48.89 -999 4.142407 32.51826 -1.185762
2005-10-12 07:13:40 51°21.445 2°48.881 -999 4.142407 32.51826 -1.185762
2005-10-12 07:13:44 51°21.46 2°48.875 -999 4.138467 32.485071 -1.185762
2005-10-12 07:13:50 51°21.483 2°48.867 -999 4.135149 32.457998 -1.185762
2005-10-12 07:13:54 51°21.498 2°48.862 -999 4.137948 32.485182 -1.185762
2005-10-12 07:13:59 51°21.517 2°48.855 -999 4.131001 32.426978 -1.185762
2005-10-12 07:14:04 51°21.536 2°48.848 -999 4.128824 32.411885 -1.185762
2005-10-12 07:14:09 51°21.555 2°48.842 -999 4.128824 32.411885 -1.185762
2005-10-12 07:14:14 51°21.574 2°48.835 -999 4.134838 32.466567 -1.185762
2005-10-12 07:14:19 51°21.593 2°48.828 -999 4.130483 32.430401 -1.185762
2005-10-12 07:14:25 51°21.616 2°48.82 -999 4.135356 32.475764 -1.185762
2005-10-12 07:14:29 51°21.631 2°48.815 -999 4.128306 32.416633 -1.185762
2005-10-12 07:14:34 51°21.65 2°48.808 -999 4.135045 32.478357 -1.185762
2005-10-12 07:14:40 51°21.672 2°48.799 -999 4.135045 32.478357 -1.185762
2005-10-12 07:14:44 51°21.687 2°48.793 -999 4.135045 32.481683 -1.185762
2005-10-12 07:14:49 51°21.706 2°48.786 -999 4.133801 32.47277 -1.185762
2005-10-12 07:14:54 51°21.725 2°48.779 -999 4.13349 32.472039 -1.185762
2005-10-12 07:15:00 51°21.748 2°48.771 -999 4.133594 32.474943 -1.185762
2005-10-12 07:15:04 51°21.763 2°48.764 -999 4.130276 32.447184 -1.185762
2005-10-12 07:15:09 51°21.781 2°48.755 -999 4.130276 32.447184 -1.185762
2005-10-12 07:15:14 51°21.799 2°48.745 -999 4.133283 32.475542 -1.185762
2005-10-12 07:15:19 51°21.817 2°48.734 -999 4.122396 32.382091 -1.185762
2005-10-12 07:15:24 51°21.834 2°48.722 -999 4.128825 32.440439 -1.185762
2005-10-12 07:15:29 51°21.851 2°48.71 -999 4.13152 32.466073 -1.185762
2005-10-12 07:15:34 51°21.868 2°48.698 -999 4.131002 32.464188 -1.185762
2005-10-12 07:15:39 51°21.885 2°48.685 -999 4.131002 32.464188 -1.185762
2005-10-12 07:15:45 51°21.904 2°48.668 -999 4.121359 32.380964 -1.185762
2005-10-12 07:15:49 51°21.917 2°48.657 -999 4.132039 32.474612 -1.185762
2005-10-12 07:15:54 51°21.933 2°48.642 -999 4.130484 32.458311 -1.185762
2005-10-12 07:15:59 51°21.949 2°48.627 -999 4.13152 32.460087 -1.185762
2005-10-12 07:16:04 51°21.964 2°48.612 -999 4.137949 32.50048 -1.185762
2005-10-12 07:16:10 51°21.983 2°48.593 -999 4.137949 32.50048 -1.185762
2005-10-12 07:16:14 51°21.996 2°48.581 -999 4.154642 32.622816 -1.185762
2005-10-12 07:16:20 51°22.015 2°48.563 -999 4.162419 32.664929 -1.185762
2005-10-12 07:16:24 51°22.027 2°48.551 -999 4.173825 32.740785 -1.185762
2005-10-12 07:16:29 51°22.043 2°48.535 -999 4.173098 32.711715 -1.185762
2005-10-12 07:16:34 51°22.059 2°48.519 -999 4.186994 32.814604 -1.185762
2005-10-12 07:16:39 51°22.074 2°48.504 -999 4.186994 32.814604 -1.185762
2005-10-12 07:16:44 51°22.09 2°48.488 -999 4.18803 32.807621 -1.185762
2005-10-12 07:16:49 51°22.106 2°48.472 -999 4.197467 32.878119 -1.185762
2005-10-12 07:16:54 51°22.121 2°48.456 -999 4.200474 32.893033 -1.185762
2005-10-12 07:17:00 51°22.139 2°48.437 -999 4.204726 32.922173 -1.185762
2005-10-12 07:17:04 51°22.151 2°48.423 -999 4.206696 32.931357 -1.185762
2005-10-12 07:17:09 51°22.167 2°48.407 -999 4.206696 32.931357 -1.185762
2005-10-12 07:17:14 51°22.182 2°48.391 -999 4.20514 32.913068 -1.185762
2005-10-12 07:17:19 51°22.197 2°48.375 -999 4.207525 32.929897 -1.185762
2005-10-12 07:17:25 51°22.215 2°48.354 -999 4.210533 32.953503 -1.185762
2005-10-12 07:17:29 51°22.227 2°48.341 -999 4.18917 32.766181 -1.219471
2005-10-12 07:17:34 51°22.243 2°48.325 -999 4.20317 32.887144 -1.185762
2005-10-12 07:17:39 51°22.258 2°48.309 -999 4.20317 32.887144 -1.185762
2005-10-12 07:17:44 51°22.273 2°48.292 -999 4.208459 32.932694 -1.185762
2005-10-12 07:17:49 51°22.288 2°48.276 -999 4.208562 32.93293 -1.185762
2005-10-12 07:17:54 51°22.304 2°48.26 -999 4.199436 32.853188 -1.185762
2005-10-12 07:18:00 51°22.321 2°48.24 -999 4.207421 32.922291 -1.185762
2005-10-12 07:18:04 51°22.333 2°48.226 -999 4.202859 32.88175 -1.185762
2005-10-12 07:18:10 51°22.351 2°48.206 -999 4.202859 32.88175 -1.185762
2005-10-12 07:18:14 51°22.363 2°48.193 -999 4.208044 32.926389 -1.185762
2005-10-12 07:18:19 51°22.378 2°48.177 -999 4.203792 32.888567 -1.185762
2005-10-12 07:18:24 51°22.393 2°48.161 -999 4.210118 32.943174 -1.185762
2005-10-12 07:18:30 51°22.412 2°48.141 -999 4.212814 32.964728 -1.185762
2005-10-12 07:18:34 51°22.424 2°48.128 -999 4.209392 32.932811 -1.185762
2005-10-12 07:18:39 51°22.439 2°48.111 -999 4.209392 32.932811 -1.185762
2005-10-12 07:18:44 51°22.454 2°48.095 -999 4.204103 32.885264 -1.185762
2005-10-12 07:18:50 51°22.472 2°48.074 -999 4.211466 32.948254 -1.185762
2005-10-12 07:18:54 51°22.484 2°48.061 -999 4.215925 32.986552 -1.219471
2005-10-12 07:19:00 51°22.502 2°48.041 -999 4.204829 32.889599 -1.185762
2005-10-12 07:19:04 51°22.515 2°48.028 -999 4.213021 32.960506 -1.185762
2005-10-12 07:19:09 51°22.53 2°48.011 -999 4.213021 32.960506 -1.185762
2005-10-12 07:19:14 51°22.545 2°47.995 -999 4.212399 32.954399 -1.185762
2005-10-12 07:19:20 51°22.563 2°47.974 -999 4.210014 32.932889 -1.185762
2005-10-12 07:19:24 51°22.575 2°47.961 -999 4.21271 32.955777 -1.185762
2005-10-12 07:19:29 51°22.59 2°47.944 -999 4.207836 32.912525 -1.219471
2005-10-12 07:19:34 51°22.605 2°47.928 -999 4.208977 32.921821 -1.185762
2005-10-12 07:19:40 51°22.624 2°47.909 -999 4.208977 32.921821 -1.185762
2005-10-12 07:19:44 51°22.636 2°47.896 -999 4.216029 32.983433 -1.185762
2005-10-12 07:19:50 51°22.655 2°47.877 -999 4.211881 32.946518 -1.185762
2005-10-12 07:19:54 51°22.667 2°47.864 -999 4.212088 32.94766 -1.185762
2005-10-12 07:20:00 51°22.685 2°47.844 -999 4.205347 32.88744 -1.219471
2005-10-12 07:20:05 51°22.701 2°47.828 -999 4.214888 32.970113 -1.185762
2005-10-12 07:20:10 51°22.716 2°47.811 -999 4.214888 32.970113 -1.185762
2005-10-12 07:20:14 51°22.728 2°47.798 -999 4.20991 32.924618 -1.219471
2005-10-12 07:20:19 51°22.743 2°47.781 -999 4.210325 32.927572 -1.185762
2005-10-12 07:20:24 51°22.758 2°47.764 -999 4.211569 32.937773 -1.185762
2005-10-12 07:20:30 51°22.777 2°47.745 -999 4.214577 32.963374 -1.219471
2005-10-12 07:20:34 51°22.789 2°47.731 -999 4.213955 32.958608 -1.219471
2005-10-12 07:20:39 51°22.804 2°47.715 -999 4.213955 32.958608 -1.219471
2005-10-12 07:20:44 51°22.82 2°47.699 -999 4.215095 32.969244 -1.185762
2005-10-12 07:20:50 51°22.838 2°47.679 -999 4.215925 32.977833 -1.219471
2005-10-12 07:20:54 51°22.851 2°47.667 -999 4.207732 32.906935 -1.185762
2005-10-12 07:20:59 51°22.866 2°47.65 -999 4.214888 32.971454 -1.185762
2005-10-12 07:21:04 51°22.881 2°47.634 -999 4.217688 32.996591 -1.185762
2005-10-12 07:21:10 51°22.9 2°47.614 -999 4.217688 32.996591 -1.185762
2005-10-12 07:21:14 51°22.913 2°47.602 -999 4.190414 32.759055 -1.219471
2005-10-12 07:21:20 51°22.931 2°47.582 -999 4.211569 32.9438 -1.185762
2005-10-12 07:21:24 51°22.943 2°47.57 -999 4.213229 32.956957 -1.185762
2005-10-12 07:21:29 51°22.959 2°47.553 -999 4.215406 32.974643 -1.219471
2005-10-12 07:21:34 51°22.974 2°47.537 -999 4.196221 32.805084 -1.185762
2005-10-12 07:21:40 51°22.993 2°47.518 -999 4.196221 32.805084 -1.185762
2005-10-12 07:21:44 51°23.005 2°47.505 -999 4.216755 32.98374 -1.185762
2005-10-12 07:21:49 51°23.02 2°47.488 -999 4.216858 32.983976 -1.185762
2005-10-12 07:21:54 51°23.035 2°47.471 -999 4.212192 32.941199 -1.185762
2005-10-12 07:22:00 51°23.054 2°47.451 -999 4.219658 33.005085 -1.185762
2005-10-12 07:22:04 51°23.066 2°47.438 -999 4.22474 33.047471 -1.219471
2005-10-12 07:22:10 51°23.085 2°47.419 -999 4.22474 33.047471 -1.219471
2005-10-12 07:22:14 51°23.097 2°47.406 -999 4.226192 33.058142 -1.185762
2005-10-12 07:22:19 51°23.112 2°47.39 -999 4.222873 33.027804 -1.219471
2005-10-12 07:22:24 51°23.128 2°47.373 -999 4.223081 33.028945 -1.219471
2005-10-12 07:22:29 51°23.143 2°47.357 -999 4.21354 32.945608 -1.185762
2005-10-12 07:22:34 51°23.158 2°47.34 -999 4.210947 32.92163 -1.185762
2005-10-12 07:22:40 51°23.176 2°47.321 -999 4.210947 32.92163 -1.185762
2005-10-12 07:22:44 51°23.188 2°47.307 -999 4.227747 33.065687 -1.185762
2005-10-12 07:22:50 51°23.207 2°47.288 -999 4.220591 32.999824 -1.185762
2005-10-12 07:22:54 51°23.219 2°47.274 -999 4.226503 33.046756 -1.185762
2005-10-12 07:22:59 51°23.234 2°47.258 -999 4.234696 33.113618 -1.219471
2005-10-12 07:23:04 51°23.25 2°47.242 -999 4.226295 33.03622 -1.219471
2005-10-12 07:23:10 51°23.268 2°47.222 -999 4.226295 33.03622 -1.219471
2005-10-12 07:23:14 51°23.28 2°47.209 -999 4.233244 33.092868 -1.219471
2005-10-12 07:23:20 51°23.298 2°47.189 -999 4.229406 33.054661 -1.219471
2005-10-12 07:23:24 51°23.31 2°47.176 -999 4.235214 33.098651 -1.185762
2005-10-12 07:23:29 51°23.326 2°47.159 -999 4.240918 33.138368 -1.185762
2005-10-12 07:23:34 51°23.341 2°47.143 -999 4.25243 33.22945 -1.219471
2005-10-12 07:23:40 51°23.359 2°47.122 -999 4.25243 33.22945 -1.219471
2005-10-12 07:23:44 51°23.371 2°47.109 -999 4.252948 33.223868 -1.219471
2005-10-12 07:23:49 51°23.387 2°47.093 -999 4.249525 33.184575 -1.219471
2005-10-12 07:23:54 51°23.402 2°47.076 -999 4.259171 33.259983 -1.219471
2005-10-12 07:23:59 51°23.418 2°47.061 -999 4.258133 33.244196 -1.219471
2005-10-12 07:24:04 51°23.433 2°47.045 -999 4.254088 33.202857 -1.219471
2005-10-12 07:24:09 51°23.448 2°47.028 -999 4.254088 33.202857 -1.219471
2005-10-12 07:24:14 51°23.464 2°47.012 -999 4.257096 33.223705 -1.219471
2005-10-12 07:24:20 51°23.482 2°46.992 -999 4.257407 33.221708 -1.185762
2005-10-12 07:24:24 51°23.495 2°46.979 -999 4.256577 33.210439 -1.219471
2005-10-12 07:24:29 51°23.51 2°46.963 -999 4.265393 33.283939 -1.219471
2005-10-12 07:24:34 51°23.525 2°46.947 -999 4.256888 33.206428 -1.219471
2005-10-12 07:24:39 51°23.541 2°46.93 -999 4.256888 33.206428 -1.219471
2005-10-12 07:24:45 51°23.559 2°46.91 -999 4.267156 33.293249 -1.219471
2005-10-12 07:24:49 51°23.572 2°46.897 -999 4.256681 33.199916 -1.219471
2005-10-12 07:24:54 51°23.587 2°46.881 -999 4.269645 33.311582 -1.219471
2005-10-12 07:25:00 51°23.606 2°46.861 -999 4.269231 33.307291 -1.219471
2005-10-12 07:25:04 51°23.618 2°46.848 -999 4.258963 33.217786 -1.219471
2005-10-12 07:25:10 51°23.637 2°46.829 -999 4.258963 33.217786 -1.219471
2005-10-12 07:25:14 51°23.649 2°46.816 -999 4.263734 33.258696 -1.185762
2005-10-12 07:25:19 51°23.665 2°46.8 -999 4.269127 33.305713 -1.219471
2005-10-12 07:25:24 51°23.68 2°46.783 -999 4.262178 33.246481 -1.219471
2005-10-12 07:25:29 51°23.695 2°46.767 -999 4.261763 33.244884 -1.219471
2005-10-12 07:25:34 51°23.711 2°46.75 -999 4.269749 33.316532 -1.219471
2005-10-12 07:25:40 51°23.729 2°46.73 -999 4.269749 33.316532 -1.219471
2005-10-12 07:25:44 51°23.742 2°46.717 -999 4.269231 33.313359 -1.219471
2005-10-12 07:25:49 51°23.757 2°46.701 -999 4.254399 33.185405 -1.219471
2005-10-12 07:25:54 51°23.773 2°46.685 -999 4.258963 33.225855 -1.219471
2005-10-12 07:25:59 51°23.788 2°46.669 -999 4.271824 33.337996 -1.219471
2005-10-12 07:26:04 51°23.804 2°46.653 -999 4.266327 33.290057 -1.219471
2005-10-12 07:26:10 51°23.823 2°46.633 -999 4.266327 33.290057 -1.219471
2005-10-12 07:26:14 51°23.835 2°46.62 -999 4.266015 33.287344 -1.219471
2005-10-12 07:26:20 51°23.853 2°46.6 -999 4.266015 33.28667 -1.185762
2005-10-12 07:26:24 51°23.866 2°46.587 -999 4.268401 33.306798 -1.219471
2005-10-12 07:26:29 51°23.881 2°46.571 -999 4.27089 33.328505 -1.219471
2005-10-12 07:26:34 51°23.897 2°46.555 -999 4.263423 33.263389 -1.219471
2005-10-12 07:26:40 51°23.915 2°46.536 -999 4.263423 33.263389 -1.219471
2005-10-12 07:26:45 51°23.931 2°46.52 -999 4.260726 33.239207 -1.219471
2005-10-12 07:26:49 51°23.943 2°46.506 -999 4.273691 33.352254 -1.219471
2005-10-12 07:26:54 51°23.959 2°46.49 -999 4.265082 33.27651 -1.219471
2005-10-12 07:27:00 51°23.977 2°46.47 -999 4.269853 33.317437 -1.219471
2005-10-12 07:27:04 51°23.99 2°46.457 -999 4.265497 33.278107 -1.219471
2005-10-12 07:27:09 51°24.005 2°46.44 -999 4.265497 33.278107 -1.219471
2005-10-12 07:27:14 51°24.021 2°46.424 -999 4.272342 33.33712 -1.219471
2005-10-12 07:27:19 51°24.036 2°46.407 -999 4.272342 33.336446 -1.219471
2005-10-12 07:27:24 51°24.052 2°46.391 -999 4.272653 33.339159 -1.219471
2005-10-12 07:27:30 51°24.071 2°46.372 -999 4.259066 33.220707 -1.219471
2005-10-12 07:27:34 51°24.083 2°46.359 -999 4.26446 33.267718 -1.219471
2005-10-12 07:27:39 51°24.099 2°46.343 -999 4.26446 33.267718 -1.219471
2005-10-12 07:27:44 51°24.114 2°46.326 -999 4.269438 33.311796 -1.219471
2005-10-12 07:27:50 51°24.133 2°46.306 -999 4.272446 33.3387 -1.219471
2005-10-12 07:27:54 51°24.146 2°46.293 -999 4.261037 33.239901 -1.219471
2005-10-12 07:27:59 51°24.161 2°46.276 -999 4.269749 33.317207 -1.219471
2005-10-12 07:28:05 51°24.18 2°46.257 -999 4.264252 33.26995 -1.219471
2005-10-12 07:28:10 51°24.195 2°46.241 -999 4.264252 33.26995 -1.219471
2005-10-12 07:28:14 51°24.208 2°46.228 -999 4.270683 33.326696 -1.219471
2005-10-12 07:28:20 51°24.227 2°46.209 -999 4.262178 33.253884 -1.219471
2005-10-12 07:28:24 51°24.24 2°46.196 -999 4.26809 33.306107 -1.219471
2005-10-12 07:28:29 51°24.255 2°46.18 -999 4.271409 33.335727 -1.219471
2005-10-12 07:28:34 51°24.271 2°46.164 -999 4.256681 33.207309 -1.219471
2005-10-12 07:28:39 51°24.286 2°46.147 -999 4.256681 33.207309 -1.219471
2005-10-12 07:28:44 51°24.302 2°46.131 -999 4.268712 33.312883 -1.219471
2005-10-12 07:28:49 51°24.317 2°46.114 -999 4.263111 33.26539 -1.219471
2005-10-12 07:28:54 51°24.333 2°46.098 -999 4.262904 33.264928 -1.219471
2005-10-12 07:29:00 51°24.351 2°46.078 -999 4.259896 33.240048 -1.219471
2005-10-12 07:29:04 51°24.364 2°46.065 -999 4.263526 33.273049 -1.219471
2005-10-12 07:29:10 51°24.383 2°46.046 -999 4.263526 33.273049 -1.219471
2005-10-12 07:29:14 51°24.395 2°46.033 -999 4.263941 33.277341 -1.219471
2005-10-12 07:29:19 51°24.411 2°46.017 -999 4.260207 33.245453 -1.219471
2005-10-12 07:29:25 51°24.429 2°45.997 -999 4.263423 33.275514 -1.219471
2005-10-12 07:29:30 51°24.445 2°45.981 -999 4.266327 33.302193 -1.219471
2005-10-12 07:29:34 51°24.458 2°45.968 -999 4.263526 33.27844 -1.219471
2005-10-12 07:29:40 51°24.477 2°45.948 -999 4.263526 33.27844 -1.219471
2005-10-12 07:29:45 51°24.492 2°45.932 -999 4.262178 33.267354 -1.219471
2005-10-12 07:29:50 51°24.508 2°45.916 -999 4.254711 33.203576 -1.219471
2005-10-12 07:29:54 51°24.52 2°45.903 -999 4.261141 33.261002 -1.219471
2005-10-12 07:29:59 51°24.536 2°45.887 -999 4.262801 33.276825 -1.219471
2005-10-12 07:30:04 51°24.552 2°45.871 -999 4.262386 33.272532 -1.219471
2005-10-12 07:30:09 51°24.568 2°45.855 -999 4.262386 33.272532 -1.219471
2005-10-12 07:30:14 51°24.583 2°45.839 -999 4.253051 33.191795 -1.219471
2005-10-12 07:30:20 51°24.602 2°45.819 -999 4.263734 33.285642 -1.219471
2005-10-12 07:30:24 51°24.614 2°45.806 -999 4.261867 33.270704 -1.219471
2005-10-12 07:30:29 51°24.63 2°45.789 -999 4.263112 33.281562 -1.219471
2005-10-12 07:30:34 51°24.646 2°45.774 -999 4.262904 33.279752 -1.219471
2005-10-12 07:30:39 51°24.662 2°45.758 -999 4.262904 33.279752 -1.219471
2005-10-12 07:30:45 51°24.681 2°45.739 -999 4.265808 33.304414 -1.219471
2005-10-12 07:30:49 51°24.693 2°45.726 -999 4.26083 33.259635 -1.219471
2005-10-12 07:30:54 51°24.71 2°45.711 -999 4.260934 33.259193 -1.219471
2005-10-12 07:31:00 51°24.729 2°45.692 -999 4.262178 33.268701 -1.219471
2005-10-12 07:31:04 51°24.741 2°45.679 -999 4.262178 33.268027 -1.219471
2005-10-12 07:31:10 51°24.76 2°45.659 -999 4.262178 33.268027 -1.219471
2005-10-12 07:31:14 51°24.772 2°45.646 -999 4.263838 33.282502 -1.219471
2005-10-12 07:31:19 51°24.788 2°45.629 -999 4.260311 33.251744 -1.219471
2005-10-12 07:31:24 51°24.803 2°45.611 -999 4.254503 33.20244 -1.219471
2005-10-12 07:31:30 51°24.821 2°45.591 -999 4.262282 33.271627 -1.219471
2005-10-12 07:31:34 51°24.834 2°45.576 -999 4.263838 33.287221 -1.219471
2005-10-12 07:31:39 51°24.849 2°45.559 -999 4.263838 33.287221 -1.219471
2005-10-12 07:31:44 51°24.864 2°45.542 -999 4.264875 33.297619 -1.219471
2005-10-12 07:31:50 51°24.882 2°45.52 -999 4.264771 33.298063 -1.219471
2005-10-12 07:31:54 51°24.894 2°45.506 -999 4.259067 33.248297 -1.219471
2005-10-12 07:32:00 51°24.911 2°45.483 -999 4.262386 33.276576 -1.219471
2005-10-12 07:32:05 51°24.926 2°45.466 -999 4.264979 33.299198 -1.219471
2005-10-12 07:32:10 51°24.94 2°45.447 -999 4.264979 33.299198 -1.219471
2005-10-12 07:32:14 51°24.952 2°45.433 -999 4.26809 33.325673 -1.219471
2005-10-12 07:32:19 51°24.967 2°45.415 -999 4.264253 33.290841 -1.219471
2005-10-12 07:32:24 51°24.982 2°45.398 -999 4.269127 33.331347 -1.219471
2005-10-12 07:32:29 51°24.996 2°45.38 -999 4.270268 33.337926 -1.219471
2005-10-12 07:32:34 51°25.011 2°45.362 -999 4.265808 33.294972 -1.219471
2005-10-12 07:32:39 51°25.025 2°45.344 -999 4.265808 33.294972 -1.219471
2005-10-12 07:32:44 51°25.04 2°45.326 -999 4.272861 33.351093 -1.219471
2005-10-12 07:32:49 51°25.054 2°45.307 -999 4.269957 33.316318 -1.219471
2005-10-12 07:32:54 51°25.068 2°45.289 -999 4.282299 33.413823 -1.219471
2005-10-12 07:33:00 51°25.086 2°45.268 -999 4.274624 33.332733 -1.219471
2005-10-12 07:33:04 51°25.097 2°45.254 -999 4.284684 33.408943 -1.219471
2005-10-12 07:33:10 51°25.114 2°45.231 -999 4.284684 33.408943 -1.219471
2005-10-12 07:33:14 51°25.126 2°45.217 -999 4.297546 33.506161 -1.219471
2005-10-12 07:33:20 51°25.143 2°45.195 -999 4.290389 33.434335 -1.219471
2005-10-12 07:33:24 51°25.155 2°45.181 -999 4.304184 33.541661 -1.219471
2005-10-12 07:33:29 51°25.169 2°45.163 -999 4.307192 33.559738 -1.219471
2005-10-12 07:33:34 51°25.184 2°45.145 -999 4.308436 33.562451 -1.219471
2005-10-12 07:33:39 51°25.198 2°45.128 -999 4.308436 33.562451 -1.219471
2005-10-12 07:33:44 51°25.213 2°45.11 -999 4.314038 33.604457 -1.219471
2005-10-12 07:33:50 51°25.23 2°45.089 -999 4.301279 33.48864 -1.219471
2005-10-12 07:33:54 51°25.241 2°45.074 -999 4.315178 33.604225 -1.219471
2005-10-12 07:33:59 51°25.256 2°45.057 -999 4.324203 33.679418 -1.219471
2005-10-12 07:34:04 51°25.271 2°45.039 -999 4.319742 33.637862 -1.219471
2005-10-12 07:34:10 51°25.288 2°45.018 -999 4.319742 33.637862 -1.219471
2005-10-12 07:34:14 51°25.3 2°45.004 -999 4.323373 33.666081 -1.219471
2005-10-12 07:34:20 51°25.317 2°44.982 -999 4.32773 33.7013 -1.219471
2005-10-12 07:34:24 51°25.329 2°44.967 -999 4.328144 33.702875 -1.219471
2005-10-12 07:34:29 51°25.343 2°44.949 -999 4.323891 33.663809 -1.219471
2005-10-12 07:34:34 51°25.357 2°44.93 -999 4.308643 33.529753 -1.219471
2005-10-12 07:34:40 51°25.374 2°44.908 -999 4.308643 33.529753 -1.219471
2005-10-12 07:34:44 51°25.385 2°44.893 -999 4.325966 33.678476 -1.219471
2005-10-12 07:34:50 51°25.403 2°44.872 -999 4.332086 33.730401 -1.219471
2005-10-12 07:34:54 51°25.414 2°44.858 -999 4.331049 33.72001 -1.219471
2005-10-12 07:35:00 51°25.431 2°44.835 -999 4.332397 33.729712 -1.219471
2005-10-12 07:35:04 51°25.443 2°44.821 -999 4.32524 33.66537 -1.219471
2005-10-12 07:35:09 51°25.457 2°44.803 -999 4.32524 33.66537 -1.219471
2005-10-12 07:35:14 51°25.471 2°44.785 -999 4.320883 33.625423 -1.219471
2005-10-12 07:35:19 51°25.485 2°44.766 -999 4.335717 33.752492 -1.219471
2005-10-12 07:35:24 51°25.499 2°44.747 -999 4.330323 33.7035 -1.219471
2005-10-12 07:35:29 51°25.513 2°44.728 -999 4.320468 33.61504 -1.219471
2005-10-12 07:35:34 51°25.527 2°44.71 -999 4.333331 33.724248 -1.219471
2005-10-12 07:35:40 51°25.544 2°44.688 -999 4.333331 33.724248 -1.219471
2005-10-12 07:35:44 51°25.556 2°44.673 -999 4.337687 33.760129 -1.219471
2005-10-12 07:35:50 51°25.573 2°44.651 -999 4.338621 33.765534 -1.219471
2005-10-12 07:35:54 51°25.584 2°44.636 -999 4.322542 33.622929 -1.219471
2005-10-12 07:36:00 51°25.602 2°44.615 -999 4.335405 33.732113 -1.219471
2005-10-12 07:36:04 51°25.613 2°44.6 -999 4.334368 33.720371 -1.219471
2005-10-12 07:36:10 51°25.63 2°44.579 -999 4.334368 33.720371 -1.219471
2005-10-12 07:36:14 51°25.641 2°44.564 -999 4.337998 33.749242 -1.219471
2005-10-12 07:36:20 51°25.659 2°44.542 -999 4.339658 33.761644 -1.219471
2005-10-12 07:36:25 51°25.672 2°44.523 -999 4.342252 33.782169 -1.219471
2005-10-12 07:36:29 51°25.684 2°44.508 -999 4.343808 33.794347 -1.219471
2005-10-12 07:36:34 51°25.698 2°44.49 -999 4.341007 33.767939 -1.219471
2005-10-12 07:36:40 51°25.714 2°44.468 -999 4.341007 33.767939 -1.219471
2005-10-12 07:36:44 51°25.726 2°44.453 -999 4.332604 33.692819 -1.219471
2005-10-12 07:36:49 51°25.74 2°44.434 -999 4.347231 33.818009 -1.219471
2005-10-12 07:36:54 51°25.754 2°44.415 -999 4.347853 33.821382 -1.219471
2005-10-12 07:37:00 51°25.771 2°44.394 -999 4.34972 33.836267 -1.219471
2005-10-12 07:37:04 51°25.783 2°44.379 -999 4.345467 33.797225 -1.219471
2005-10-12 07:37:09 51°25.797 2°44.36 -999 4.345467 33.797225 -1.219471
2005-10-12 07:37:14 51°25.811 2°44.342 -999 4.345571 33.796767 -1.219471
2005-10-12 07:37:20 51°25.828 2°44.32 -999 4.348994 33.825865 -1.219471
2005-10-12 07:37:24 51°25.84 2°44.305 -999 4.343704 33.777807 -1.219471
2005-10-12 07:37:30 51°25.856 2°44.284 -999 4.348994 33.822462 -1.219471
2005-10-12 07:37:34 51°25.867 2°44.269 -999 4.347334 33.806665 -1.219471
2005-10-12 07:37:40 51°25.884 2°44.247 -999 4.347334 33.806665 -1.219471
2005-10-12 07:37:45 51°25.899 2°44.228 -999 4.347438 33.806207 -1.219471
2005-10-12 07:37:49 51°25.91 2°44.214 -999 4.345052 33.784778 -1.219471
2005-10-12 07:37:54 51°25.923 2°44.196 -999 4.349616 33.823113 -1.219471
2005-10-12 07:38:00 51°25.937 2°44.178 -999 4.34806 33.80822 -1.219471
2005-10-12 07:38:04 51°25.946 2°44.166 -999 4.34443 33.775969 -1.219471
2005-10-12 07:38:10 51°25.957 2°44.149 -999 4.34443 33.775969 -1.219471
2005-10-12 07:38:14 51°25.963 2°44.138 -999 4.353351 33.852872 -1.219471
2005-10-12 07:38:19 51°25.969 2°44.125 -999 4.340176 33.736277 -1.219471
2005-10-12 07:38:25 51°25.975 2°44.111 -999 4.349409 33.815187 -1.219471
2005-10-12 07:38:30 51°25.979 2°44.1 -999 4.345882 33.783161 -1.219471
2005-10-12 07:38:34 51°25.982 2°44.091 -999 4.347334 33.794429 -1.219471
2005-10-12 07:38:39 51°25.985 2°44.081 -999 4.347334 33.794429 -1.219471
2005-10-12 07:38:44 51°25.987 2°44.071 -999 4.347645 33.797134 -1.219471
2005-10-12 07:38:50 51°25.99 2°44.061 -999 4.352521 33.838848 -1.219471
2005-10-12 07:38:54 51°25.992 2°44.055 -999 4.332189 33.662115 -1.219471
2005-10-12 07:39:00 51°25.993 2°44.047 -999 4.351587 33.83005 -1.219471
2005-10-12 07:39:04 51°25.994 2°44.042 -999 4.347645 33.795775 -1.219471
2005-10-12 07:39:10 51°25.995 2°44.036 -999 4.347645 33.795775 -1.219471
2005-10-12 07:39:14 51°25.996 2°44.032 -999 4.353247 33.843121 -1.219471
2005-10-12 07:39:19 51°25.997 2°44.029 -999 4.346815 33.785164 -1.219471
2005-10-12 07:39:24 51°25.998 2°44.027 -999 4.347023 33.784251 -1.219471
2005-10-12 07:39:30 51°26 2°44.026 -999 4.352417 33.829103 -1.219471
2005-10-12 07:39:34 51°26.001 2°44.026 -999 4.355529 33.854119 -1.219471
2005-10-12 07:39:40 51°26.003 2°44.027 -999 4.355529 33.854119 -1.219471
2005-10-12 07:39:44 51°26.004 2°44.028 -999 4.356878 33.863801 -1.219471
2005-10-12 07:39:49 51°26.006 2°44.029 -999 4.354492 33.841699 -1.219471
2005-10-12 07:39:54 51°26.008 2°44.03 -999 4.350861 33.80878 -1.219471
2005-10-12 07:40:00 51°26.01 2°44.031 -999 4.35999 33.887454 -1.219471
2005-10-12 07:40:04 51°26.011 2°44.032 -999 4.356359 33.85589 -1.219471
2005-10-12 07:40:10 51°26.013 2°44.033 -999 4.356359 33.85589 -1.219471
2005-10-12 07:40:14 51°26.015 2°44.034 -999 4.346504 33.770238 -1.219471
2005-10-12 07:40:19 51°26.016 2°44.035 -999 4.347749 33.781734 -1.219471
2005-10-12 07:40:25 51°26.019 2°44.036 -999 4.351379 33.813288 -1.219471
2005-10-12 07:40:30 51°26.02 2°44.037 -999 4.351898 33.817796 -1.219471
2005-10-12 07:40:34 51°26.022 2°44.037 -999 4.351172 33.812165 -1.219471
2005-10-12 07:40:39 51°26.024 2°44.038 -999 4.351172 33.812165 -1.219471
2005-10-12 07:40:44 51°26.025 2°44.039 -999 4.356048 33.854545 -1.219471
2005-10-12 07:40:50 51°26.028 2°44.041 -999 4.358537 33.87687 -1.219471
2005-10-12 07:40:54 51°26.029 2°44.042 -999 4.355529 33.850716 -1.219471
2005-10-12 07:40:59 51°26.031 2°44.043 -999 4.357293 33.866048 -1.219471
2005-10-12 07:41:04 51°26.033 2°44.044 -999 4.349823 33.801123 -1.219471
2005-10-12 07:41:09 51°26.035 2°44.045 -999 4.349823 33.801123 -1.219471
2005-10-12 07:41:14 51°26.036 2°44.046 -999 4.355529 33.850716 -1.219471
2005-10-12 07:41:20 51°26.038 2°44.047 -999 4.345985 33.767767 -1.219471
2005-10-12 07:41:24 51°26.04 2°44.047 -999 4.344118 33.75222 -1.219471
2005-10-12 07:41:30 51°26.042 2°44.048 -999 4.356359 33.858612 -1.219471
2005-10-12 07:41:34 51°26.044 2°44.049 -999 4.338309 33.702425 -1.219471
2005-10-12 07:41:40 51°26.046 2°44.05 -999 4.338309 33.702425 -1.219471
2005-10-12 07:41:44 51°26.048 2°44.05 -999 4.347126 33.77972 -1.219471
2005-10-12 07:41:50 51°26.05 2°44.051 -999 4.350861 33.812178 -1.219471
2005-10-12 07:41:54 51°26.051 2°44.051 -999 4.348682 33.793243 -1.219471
2005-10-12 07:41:59 51°26.053 2°44.052 -999 4.347956 33.787611 -1.219471
2005-10-12 07:42:04 51°26.054 2°44.052 -999 4.353351 33.833819 -1.219471
2005-10-12 07:42:09 51°26.056 2°44.052 -999 4.353351 33.833819 -1.219471
2005-10-12 07:42:14 51°26.058 2°44.053 -999 4.359056 33.883423 -1.219471
2005-10-12 07:42:20 51°26.06 2°44.053 -999 4.358537 33.878913 -1.219471
2005-10-12 07:42:24 51°26.061 2°44.053 -999 4.355737 33.853881 -1.219471
2005-10-12 07:42:29 51°26.063 2°44.053 -999 4.358537 33.878232 -1.219471
2005-10-12 07:42:34 51°26.064 2°44.054 -999 4.358537 33.878913 -1.219471
2005-10-12 07:42:39 51°26.066 2°44.054 -999 4.358537 33.878913 -1.219471
2005-10-12 07:42:44 51°26.068 2°44.054 -999 4.353143 33.831336 -1.219471
2005-10-12 07:42:50 51°26.07 2°44.055 -999 4.356981 33.864703 -1.219471
2005-10-12 07:42:54 51°26.071 2°44.055 -999 4.35667 33.862678 -1.219471
2005-10-12 07:43:00 51°26.073 2°44.055 -999 4.356981 33.864703 -1.219471
2005-10-12 07:43:05 51°26.074 2°44.055 -999 4.36165 33.903248 -1.219471
2005-10-12 07:43:09 51°26.075 2°44.056 -999 4.36165 33.903248 -1.219471
2005-10-12 07:43:14 51°26.077 2°44.056 -999 4.360405 33.890381 -1.219471
2005-10-12 07:43:20 51°26.079 2°44.056 -999 4.358537 33.872105 -1.219471
2005-10-12 07:43:24 51°26.08 2°44.057 -999 4.358434 33.870523 -1.219471
2005-10-12 07:43:29 51°26.082 2°44.058 -999 4.351483 33.808754 -1.219471
2005-10-12 07:43:34 51°26.084 2°44.058 -999 4.355944 33.847521 -1.219471
2005-10-12 07:43:39 51°26.085 2°44.059 -999 4.355944 33.847521 -1.219471
2005-10-12 07:43:44 51°26.087 2°44.06 -999 4.353765 33.828588 -1.219471
2005-10-12 07:43:49 51°26.089 2°44.06 -999 4.355425 33.843693 -1.219471
2005-10-12 07:43:54 51°26.09 2°44.061 -999 4.355736 33.846398 -1.219471
2005-10-12 07:44:00 51°26.092 2°44.061 -999 4.358952 33.875031 -1.219471
2005-10-12 07:44:04 51°26.094 2°44.062 -999 4.361961 33.901185 -1.219471
2005-10-12 07:44:10 51°26.096 2°44.062 -999 4.361961 33.901185 -1.219471
2005-10-12 07:44:14 51°26.097 2°44.063 -999 4.356981 33.857218 -1.219471
2005-10-12 07:44:20 51°26.099 2°44.064 -999 4.36165 33.897798 -1.219471
2005-10-12 07:44:24 51°26.1 2°44.064 -999 4.353662 33.826327 -1.219471
2005-10-12 07:44:29 51°26.102 2°44.065 -999 4.337686 33.68551 -1.219471
2005-10-12 07:44:34 51°26.104 2°44.066 -999 4.358848 33.868005 -1.219471
2005-10-12 07:44:40 51°26.106 2°44.067 -999 4.358848 33.868005 -1.219471
2005-10-12 07:44:45 51°26.107 2°44.068 -999 4.354076 33.824496 -1.219471
2005-10-12 07:44:49 51°26.109 2°44.068 -999 4.35418 33.82268 -1.219471
2005-10-12 07:44:54 51°26.111 2°44.069 -999 4.358537 33.857818 -1.219471
2005-10-12 07:45:00 51°26.112 2°44.07 -999 4.358226 33.851714 -1.219471
2005-10-12 07:45:04 51°26.114 2°44.071 -999 4.360612 33.870404 -1.219471
2005-10-12 07:45:10 51°26.116 2°44.072 -999 4.360612 33.870404 -1.219471
2005-10-12 07:45:14 51°26.117 2°44.073 -999 4.357292 33.838846 -1.219471
2005-10-12 07:45:20 51°26.12 2°44.074 -999 4.358952 33.851225 -1.219471
2005-10-12 07:45:24 51°26.121 2°44.075 -999 4.362583 33.881406 -1.219471
2005-10-12 07:45:30 51°26.123 2°44.075 -999 4.360197 33.85864 -1.219471
2005-10-12 07:45:34 51°26.125 2°44.076 -999 4.361649 33.870575 -1.219471
2005-10-12 07:45:39 51°26.126 2°44.077 -999 4.361649 33.870575 -1.219471
2005-10-12 07:45:44 51°26.128 2°44.078 -999 4.353869 33.802323 -1.219471
2005-10-12 07:45:50 51°26.13 2°44.079 -999 4.362271 33.873942 -1.219471
2005-10-12 07:45:54 51°26.132 2°44.08 -999 4.360197 33.855921 -1.219471
2005-10-12 07:46:00 51°26.134 2°44.082 -999 4.358433 33.839925 -1.219471
2005-10-12 07:46:04 51°26.135 2°44.082 -999 4.339242 33.673319 -1.219471
2005-10-12 07:46:10 51°26.137 2°44.084 -999 4.339242 33.673319 -1.219471
2005-10-12 07:46:14 51°26.139 2°44.085 -999 4.355528 33.814701 -1.219471
2005-10-12 07:46:20 51°26.141 2°44.085 -999 4.362479 33.875064 -1.219471
2005-10-12 07:46:24 51°26.143 2°44.086 -999 4.363516 33.884756 -1.219471
2005-10-12 07:46:29 51°26.144 2°44.088 -999 4.358641 33.843086 -1.219471
2005-10-12 07:46:34 51°26.146 2°44.088 -999 4.357707 33.836336 -1.219471
2005-10-12 07:46:40 51°26.148 2°44.09 -999 4.357707 33.836336 -1.219471
2005-10-12 07:46:44 51°26.15 2°44.091 -999 4.356566 33.827104 -1.219471
2005-10-12 07:46:49 51°26.152 2°44.092 -999 4.362064 33.87554 -1.219471
2005-10-12 07:46:54 51°26.154 2°44.094 -999 4.35501 33.814948 -1.219471
2005-10-12 07:47:00 51°26.156 2°44.095 -999 4.363413 33.888616 -1.219471
2005-10-12 07:47:04 51°26.158 2°44.096 -999 4.363724 33.892001 -1.219471
2005-10-12 07:47:09 51°26.16 2°44.097 -999 4.363724 33.892001 -1.219471
2005-10-12 07:47:14 51°26.162 2°44.098 -999 4.359056 33.852806 -1.219471
2005-10-12 07:47:19 51°26.163 2°44.099 -999 4.359782 33.859114 -1.219471
2005-10-12 07:47:25 51°26.166 2°44.101 -999 4.360093 33.863177 -1.219471
2005-10-12 07:47:29 51°26.167 2°44.102 -999 4.356151 33.829613 -1.219471
2005-10-12 07:47:34 51°26.169 2°44.103 -999 4.357811 33.84539 -1.219471
2005-10-12 07:47:40 51°26.172 2°44.104 -999 4.357811 33.84539 -1.219471
2005-10-12 07:47:45 51°26.174 2°44.105 -999 4.350653 33.783895 -1.219471
2005-10-12 07:47:50 51°26.175 2°44.106 -999 4.357915 33.847651 -1.219471
2005-10-12 07:47:54 51°26.177 2°44.106 -999 4.361649 33.881459 -1.219471
2005-10-12 07:48:00 51°26.179 2°44.107 -999 4.361546 33.881918 -1.219471
2005-10-12 07:48:04 51°26.181 2°44.108 -999 4.352105 33.80126 -1.219471
2005-10-12 07:48:09 51°26.183 2°44.109 -999 4.352105 33.80126 -1.219471
2005-10-12 07:48:14 51°26.184 2°44.11 -999 4.357189 33.84678 -1.219471
2005-10-12 07:48:20 51°26.187 2°44.111 -999 4.359263 33.865488 -1.219471
2005-10-12 07:48:24 51°26.188 2°44.111 -999 4.349823 33.785507 -1.219471
2005-10-12 07:48:30 51°26.19 2°44.112 -999 4.357915 33.856489 -1.219471
2005-10-12 07:48:34 51°26.192 2°44.112 -999 4.354699 33.829225 -1.219471
2005-10-12 07:48:39 51°26.193 2°44.113 -999 4.354699 33.829225 -1.219471
2005-10-12 07:48:44 51°26.195 2°44.113 -999 4.357707 33.856047 -1.219471
2005-10-12 07:48:49 51°26.197 2°44.114 -999 4.362998 33.90271 -1.219471
2005-10-12 07:48:54 51°26.199 2°44.114 -999 4.35501 33.833968 -1.219471
2005-10-12 07:49:00 51°26.2 2°44.114 -999 4.351276 33.802197 -1.219471
2005-10-12 07:49:05 51°26.202 2°44.115 -999 4.355114 33.835549 -1.219471
2005-10-12 07:49:09 51°26.203 2°44.115 -999 4.355114 33.835549 -1.219471
2005-10-12 07:49:14 51°26.204 2°44.115 -999 4.357189 33.85494 -1.219471
2005-10-12 07:49:20 51°26.206 2°44.115 -999 4.3575 33.856964 -1.219471
2005-10-12 07:49:24 51°26.207 2°44.115 -999 4.355944 33.844121 -1.219471
2005-10-12 07:49:30 51°26.209 2°44.115 -999 4.35999 33.879284 -1.219471
2005-10-12 07:49:34 51°26.21 2°44.115 -999 4.352728 33.816175 -1.219471
2005-10-12 07:49:40 51°26.212 2°44.115 -999 4.352728 33.816175 -1.219471
2005-10-12 07:49:44 51°26.213 2°44.115 -999 4.356462 33.846589 -1.219471
2005-10-12 07:49:50 51°26.214 2°44.114 -999 4.354491 33.827422 -1.219471
2005-10-12 07:49:54 51°26.215 2°44.115 -999 4.361338 33.88556 -1.219471
2005-10-12 07:49:59 51°26.217 2°44.114 -999 4.357396 33.849262 -1.219471
2005-10-12 07:50:05 51°26.218 2°44.114 -999 4.361961 33.887566 -1.219471
2005-10-12 07:50:10 51°26.22 2°44.114 -999 4.361961 33.887566 -1.219471